Time,TemperatureF,DewpointF,PressureIn,WindDirection,WindDirectionDegrees,WindSpeedMPH,WindSpeedGustMPH,Humidity,HourlyPrecipIn,Conditions,Clouds,dailyrainin,SoftwareType,DateUTC
2013-07-25 00:00:00,80.3,63.1,29.90,North,0,0.0,0.0,56,0.00,,,0.00,WUHU216HW,2013-07-25 07:00:00,
2013-07-25 00:01:00,80.3,63.1,29.90,North,0,0.0,0.0,56,0.00,,,0.00,WUHU216HW,2013-07-25 07:01:00,
2013-07-25 00:02:00,80.3,63.1,29.90,North,0,0.0,0.0,56,0.00,,,0.00,WUHU216HW,2013-07-25 07:02:00,
2013-07-25 00:04:00,80.3,63.1,29.90,North,0,0.0,0.0,56,0.00,,,0.00,WUHU216HW,2013-07-25 07:04:00,
2013-07-25 00:06:00,80.3,63.1,29.90,North,0,0.0,0.0,56,0.00,,,0.00,WUHU216HW,2013-07-25 07:06:00,
2013-07-25 00:07:00,80.3,63.1,29.90,North,0,0.0,0.0,56,0.00,,,0.00,WUHU216HW,2013-07-25 07:07:00,
2013-07-25 00:09:00,80.3,63.1,29.90,North,0,0.0,0.0,56,0.00,,,0.00,WUHU216HW,2013-07-25 07:09:00,
2013-07-25 00:11:00,80.3,63.1,29.90,North,0,0.0,0.0,56,0.00,,,0.00,WUHU216HW,2013-07-25 07:11:00,
2013-07-25 00:12:00,80.3,63.1,29.89,North,0,0.0,0.0,56,0.00,,,0.00,WUHU216HW,2013-07-25 07:12:00,
2013-07-25 00:13:00,80.3,63.1,29.90,North,0,0.0,0.0,56,0.00,,,0.00,WUHU216HW,2013-07-25 07:13:00,
2013-07-25 00:14:00,80.3,63.1,29.89,North,0,0.0,0.0,56,0.00,,,0.00,WUHU216HW,2013-07-25 07:14:00,
2013-07-25 00:16:00,80.3,63.1,29.89,North,0,0.0,0.0,56,0.00,,,0.00,WUHU216HW,2013-07-25 07:16:00,
2013-07-25 00:18:00,80.3,63.1,29.89,North,0,0.0,0.0,56,0.00,,,0.00,WUHU216HW,2013-07-25 07:18:00,
2013-07-25 00:19:00,80.3,63.1,29.89,North,0,0.0,0.0,56,0.00,,,0.00,WUHU216HW,2013-07-25 07:19:00,
2013-07-25 00:20:00,80.3,63.1,29.89,North,0,0.0,0.0,56,0.00,,,0.00,WUHU216HW,2013-07-25 07:20:00,
2013-07-25 00:23:00,80.3,63.1,29.89,North,0,0.0,0.0,56,0.00,,,0.00,WUHU216HW,2013-07-25 07:23:00,
2013-07-25 00:24:00,80.3,63.1,29.88,North,0,0.0,0.0,56,0.00,,,0.00,WUHU216HW,2013-07-25 07:24:00,
2013-07-25 00:26:00,80.3,63.1,29.88,North,0,0.0,0.0,56,0.00,,,0.00,WUHU216HW,2013-07-25 07:26:00,
2013-07-25 00:28:00,80.3,62.6,29.89,North,0,0.0,0.0,55,0.00,,,0.00,WUHU216HW,2013-07-25 07:28:00,
2013-07-25 00:29:00,80.3,63.1,29.89,North,0,0.0,0.0,56,0.00,,,0.00,WUHU216HW,2013-07-25 07:29:00,
2013-07-25 00:30:00,80.3,63.1,29.89,North,0,0.0,0.0,56,0.00,,,0.00,WUHU216HW,2013-07-25 07:30:00,
2013-07-25 00:31:00,80.5,63.3,29.89,North,0,0.0,0.0,56,0.00,,,0.00,WUHU216HW,2013-07-25 07:31:00,
2013-07-25 00:34:00,80.5,62.7,29.90,North,0,0.0,0.0,55,0.00,,,0.00,WUHU216HW,2013-07-25 07:34:00,
2013-07-25 00:35:00,80.6,62.9,29.90,North,0,0.0,0.0,55,0.00,,,0.00,WUHU216HW,2013-07-25 07:35:00,
2013-07-25 00:37:00,80.6,64.4,29.90,North,0,0.0,0.0,58,0.00,,,0.00,WUHU216HW,2013-07-25 07:37:00,
2013-07-25 00:40:00,80.3,64.2,29.90,North,0,0.0,0.0,58,0.00,,,0.00,WUHU216HW,2013-07-25 07:40:00,
2013-07-25 00:41:00,80.3,64.2,29.90,North,0,0.0,0.0,58,0.00,,,0.00,WUHU216HW,2013-07-25 07:41:00,
2013-07-25 00:43:00,80.3,64.2,29.90,North,0,0.0,0.0,58,0.00,,,0.00,WUHU216HW,2013-07-25 07:43:00,
2013-07-25 00:45:00,80.1,64.0,29.91,North,0,0.0,0.0,58,0.00,,,0.00,WUHU216HW,2013-07-25 07:45:00,
2013-07-25 00:46:00,80.1,64.0,29.91,North,0,0.0,0.0,58,0.00,,,0.00,WUHU216HW,2013-07-25 07:46:00,
2013-07-25 00:49:00,79.9,63.8,29.90,North,0,0.0,0.0,58,0.00,,,0.00,WUHU216HW,2013-07-25 07:49:00,
2013-07-25 00:50:00,79.9,63.8,29.90,North,0,0.0,0.0,58,0.00,,,0.00,WUHU216HW,2013-07-25 07:50:00,
2013-07-25 00:51:00,79.9,63.8,29.90,North,0,0.0,0.0,58,0.00,,,0.00,WUHU216HW,2013-07-25 07:51:00,
2013-07-25 00:52:00,79.9,63.8,29.90,North,0,0.0,0.0,58,0.00,,,0.00,WUHU216HW,2013-07-25 07:52:00,
2013-07-25 00:54:00,79.9,63.8,29.90,North,0,0.0,0.0,58,0.00,,,0.00,WUHU216HW,2013-07-25 07:54:00,
2013-07-25 00:56:00,79.9,63.8,29.91,North,0,0.0,0.0,58,0.00,,,0.00,WUHU216HW,2013-07-25 07:56:00,
2013-07-25 00:57:00,79.9,63.8,29.90,North,0,0.0,0.0,58,0.00,,,0.00,WUHU216HW,2013-07-25 07:57:00,
2013-07-25 00:58:00,79.9,63.8,29.90,North,0,0.0,0.0,58,0.00,,,0.00,WUHU216HW,2013-07-25 07:58:00,
2013-07-25 01:00:00,79.7,63.6,29.90,North,0,0.0,0.0,58,0.00,,,0.00,WUHU216HW,2013-07-25 08:00:00,
2013-07-25 01:02:00,79.7,63.6,29.91,North,0,0.0,0.0,58,0.00,,,0.00,WUHU216HW,2013-07-25 08:02:00,
2013-07-25 01:03:00,79.7,64.2,29.91,North,0,0.0,0.0,59,0.00,,,0.00,WUHU216HW,2013-07-25 08:03:00,
2013-07-25 01:04:00,79.7,64.2,29.91,North,0,0.0,0.0,59,0.00,,,0.00,WUHU216HW,2013-07-25 08:04:00,
2013-07-25 01:05:00,79.7,64.2,29.91,North,0,0.0,0.0,59,0.00,,,0.00,WUHU216HW,2013-07-25 08:05:00,
2013-07-25 01:08:00,79.6,64.0,29.91,North,0,0.0,0.0,59,0.00,,,0.00,WUHU216HW,2013-07-25 08:08:00,
2013-07-25 01:09:00,79.6,64.0,29.91,North,0,0.0,0.0,59,0.00,,,0.00,WUHU216HW,2013-07-25 08:09:00,
2013-07-25 01:11:00,79.6,64.0,29.91,North,0,0.0,0.0,59,0.00,,,0.00,WUHU216HW,2013-07-25 08:11:00,
2013-07-25 01:12:00,79.6,64.0,29.91,North,0,0.0,0.0,59,0.00,,,0.00,WUHU216HW,2013-07-25 08:12:00,
2013-07-25 01:13:00,79.4,63.9,29.91,North,0,0.0,0.0,59,0.00,,,0.00,WUHU216HW,2013-07-25 08:13:00,
2013-07-25 01:15:00,79.4,63.9,29.91,North,0,0.0,0.0,59,0.00,,,0.00,WUHU216HW,2013-07-25 08:15:00,
2013-07-25 01:16:00,79.4,63.9,29.91,North,0,0.0,0.0,59,0.00,,,0.00,WUHU216HW,2013-07-25 08:16:00,
2013-07-25 01:17:00,79.4,63.9,29.91,North,0,0.0,0.0,59,0.00,,,0.00,WUHU216HW,2013-07-25 08:17:00,
2013-07-25 01:19:00,79.2,64.3,29.91,North,0,0.0,0.0,60,0.00,,,0.00,WUHU216HW,2013-07-25 08:19:00,
2013-07-25 01:21:00,79.2,64.3,29.91,North,0,0.0,0.0,60,0.00,,,0.00,WUHU216HW,2013-07-25 08:21:00,
2013-07-25 01:22:00,79.2,64.3,29.91,North,0,0.0,0.0,60,0.00,,,0.00,WUHU216HW,2013-07-25 08:22:00,
2013-07-25 01:24:00,79.2,64.3,29.91,North,0,0.0,0.0,60,0.00,,,0.00,WUHU216HW,2013-07-25 08:24:00,
2013-07-25 01:27:00,79.2,64.3,29.91,North,0,0.0,0.0,60,0.00,,,0.00,WUHU216HW,2013-07-25 08:27:00,
2013-07-25 01:29:00,79.2,63.7,29.91,North,0,0.0,0.0,59,0.00,,,0.00,WUHU216HW,2013-07-25 08:29:00,
2013-07-25 01:30:00,79.0,64.1,29.91,North,0,0.0,0.0,60,0.00,,,0.00,WUHU216HW,2013-07-25 08:30:00,
2013-07-25 01:32:00,79.0,64.1,29.91,North,0,0.0,0.0,60,0.00,,,0.00,WUHU216HW,2013-07-25 08:32:00,
2013-07-25 01:34:00,79.0,64.1,29.91,North,0,0.0,0.0,60,0.00,,,0.00,WUHU216HW,2013-07-25 08:34:00,
2013-07-25 01:35:00,79.0,64.1,29.91,North,0,0.0,0.0,60,0.00,,,0.00,WUHU216HW,2013-07-25 08:35:00,
2013-07-25 01:37:00,79.0,64.1,29.91,North,0,0.0,0.0,60,0.00,,,0.00,WUHU216HW,2013-07-25 08:37:00,
2013-07-25 01:39:00,79.0,64.1,29.91,North,0,0.0,0.0,60,0.00,,,0.00,WUHU216HW,2013-07-25 08:39:00,
2013-07-25 01:43:00,78.8,63.9,29.92,North,0,0.0,0.0,60,0.00,,,0.00,WUHU216HW,2013-07-25 08:43:00,
2013-07-25 01:44:00,78.8,63.9,29.91,North,0,0.0,0.0,60,0.00,,,0.00,WUHU216HW,2013-07-25 08:44:00,
2013-07-25 01:48:00,78.8,63.9,29.92,North,0,0.0,0.0,60,0.00,,,0.00,WUHU216HW,2013-07-25 08:48:00,
2013-07-25 01:50:00,78.8,63.9,29.91,North,0,0.0,0.0,60,0.00,,,0.00,WUHU216HW,2013-07-25 08:50:00,
2013-07-25 01:53:00,78.8,63.9,29.92,North,0,0.0,0.0,60,0.00,,,0.00,WUHU216HW,2013-07-25 08:53:00,
2013-07-25 01:54:00,78.8,63.9,29.92,North,0,0.0,0.0,60,0.00,,,0.00,WUHU216HW,2013-07-25 08:54:00,
2013-07-25 01:55:00,78.8,63.9,29.92,North,0,0.0,0.0,60,0.00,,,0.00,WUHU216HW,2013-07-25 08:55:00,
2013-07-25 01:59:00,78.8,63.9,29.92,North,0,0.0,0.0,60,0.00,,,0.00,WUHU216HW,2013-07-25 08:59:00,
2013-07-25 02:00:00,78.8,63.9,29.92,North,0,0.0,0.0,60,0.00,,,0.00,WUHU216HW,2013-07-25 09:00:00,
2013-07-25 02:02:00,78.8,63.9,29.92,North,0,0.0,0.0,60,0.00,,,0.00,WUHU216HW,2013-07-25 09:02:00,
2013-07-25 02:04:00,78.7,63.7,29.92,North,0,0.0,0.0,60,0.00,,,0.00,WUHU216HW,2013-07-25 09:04:00,
2013-07-25 02:05:00,78.8,63.9,29.92,North,0,0.0,0.0,60,0.00,,,0.00,WUHU216HW,2013-07-25 09:05:00,
2013-07-25 02:07:00,78.8,63.9,29.92,North,0,0.0,0.0,60,0.00,,,0.00,WUHU216HW,2013-07-25 09:07:00,
2013-07-25 02:09:00,78.7,63.7,29.92,North,0,0.0,0.0,60,0.00,,,0.00,WUHU216HW,2013-07-25 09:09:00,
2013-07-25 02:10:00,78.8,63.9,29.92,North,0,0.0,0.0,60,0.00,,,0.00,WUHU216HW,2013-07-25 09:10:00,
2013-07-25 02:12:00,78.7,63.7,29.93,North,0,0.0,0.0,60,0.00,,,0.00,WUHU216HW,2013-07-25 09:12:00,
2013-07-25 02:13:00,78.7,63.7,29.93,North,0,0.0,0.0,60,0.00,,,0.00,WUHU216HW,2013-07-25 09:13:00,
2013-07-25 02:14:00,78.7,63.7,29.93,North,0,0.0,0.0,60,0.00,,,0.00,WUHU216HW,2013-07-25 09:14:00,
2013-07-25 02:16:00,78.7,63.7,29.93,North,0,0.0,0.0,60,0.00,,,0.00,WUHU216HW,2013-07-25 09:16:00,
2013-07-25 02:17:00,78.8,63.9,29.93,North,0,0.0,0.0,60,0.00,,,0.00,WUHU216HW,2013-07-25 09:17:00,
2013-07-25 02:18:00,78.8,63.9,29.93,North,0,0.0,0.0,60,0.00,,,0.00,WUHU216HW,2013-07-25 09:18:00,
2013-07-25 02:20:00,78.7,63.7,29.93,North,0,0.0,0.0,60,0.00,,,0.00,WUHU216HW,2013-07-25 09:20:00,
2013-07-25 02:21:00,78.7,63.7,29.92,North,0,0.0,0.0,60,0.00,,,0.00,WUHU216HW,2013-07-25 09:21:00,
2013-07-25 02:23:00,78.7,63.7,29.92,North,0,0.0,0.0,60,0.00,,,0.00,WUHU216HW,2013-07-25 09:23:00,
2013-07-25 02:24:00,78.7,63.7,29.92,North,0,0.0,0.0,60,0.00,,,0.00,WUHU216HW,2013-07-25 09:24:00,
2013-07-25 02:25:00,78.7,63.7,29.92,North,0,0.0,0.0,60,0.00,,,0.00,WUHU216HW,2013-07-25 09:25:00,
2013-07-25 02:28:00,78.7,63.7,29.92,North,0,0.0,0.0,60,0.00,,,0.00,WUHU216HW,2013-07-25 09:28:00,
2013-07-25 02:29:00,78.5,63.5,29.92,North,0,0.0,0.0,60,0.00,,,0.00,WUHU216HW,2013-07-25 09:29:00,
2013-07-25 02:30:00,78.7,63.7,29.92,North,0,0.0,0.0,60,0.00,,,0.00,WUHU216HW,2013-07-25 09:30:00,
2013-07-25 02:31:00,78.5,63.5,29.92,North,0,0.0,0.0,60,0.00,,,0.00,WUHU216HW,2013-07-25 09:31:00,
2013-07-25 02:35:00,78.5,63.5,29.92,North,0,0.0,0.0,60,0.00,,,0.00,WUHU216HW,2013-07-25 09:35:00,
2013-07-25 02:36:00,78.5,63.5,29.92,North,0,0.0,0.0,60,0.00,,,0.00,WUHU216HW,2013-07-25 09:36:00,
2013-07-25 02:40:00,78.5,64.0,29.92,North,0,0.0,0.0,61,0.00,,,0.00,WUHU216HW,2013-07-25 09:40:00,
2013-07-25 02:41:00,78.5,64.0,29.92,North,0,0.0,0.0,61,0.00,,,0.00,WUHU216HW,2013-07-25 09:41:00,
2013-07-25 02:42:00,78.5,64.0,29.92,North,0,0.0,0.0,61,0.00,,,0.00,WUHU216HW,2013-07-25 09:42:00,
2013-07-25 02:46:00,78.3,63.4,29.92,North,0,0.0,0.0,60,0.00,,,0.00,WUHU216HW,2013-07-25 09:46:00,
2013-07-25 02:47:00,78.3,63.4,29.93,North,0,0.0,0.0,60,0.00,,,0.00,WUHU216HW,2013-07-25 09:47:00,
2013-07-25 02:48:00,78.3,63.8,29.93,North,0,0.0,0.0,61,0.00,,,0.00,WUHU216HW,2013-07-25 09:48:00,
2013-07-25 02:51:00,78.3,63.4,29.93,North,0,0.0,0.0,60,0.00,,,0.00,WUHU216HW,2013-07-25 09:51:00,
2013-07-25 02:52:00,78.3,63.4,29.93,North,0,0.0,0.0,60,0.00,,,0.00,WUHU216HW,2013-07-25 09:52:00,
2013-07-25 02:53:00,78.3,63.4,29.93,North,0,0.0,0.0,60,0.00,,,0.00,WUHU216HW,2013-07-25 09:53:00,
2013-07-25 02:54:00,78.3,63.8,29.93,North,0,0.0,0.0,61,0.00,,,0.00,WUHU216HW,2013-07-25 09:54:00,
2013-07-25 02:57:00,78.3,63.8,29.93,North,0,0.0,0.0,61,0.00,,,0.00,WUHU216HW,2013-07-25 09:57:00,
2013-07-25 02:58:00,78.3,63.8,29.93,North,0,0.0,0.0,61,0.00,,,0.00,WUHU216HW,2013-07-25 09:58:00,
2013-07-25 03:00:00,78.1,63.6,29.93,North,0,0.0,0.0,61,0.00,,,0.00,WUHU216HW,2013-07-25 10:00:00,
2013-07-25 03:02:00,78.1,63.6,29.93,North,0,0.0,0.0,61,0.00,,,0.00,WUHU216HW,2013-07-25 10:02:00,
2013-07-25 03:04:00,78.1,63.6,29.93,North,0,0.0,0.0,61,0.00,,,0.00,WUHU216HW,2013-07-25 10:04:00,
2013-07-25 03:05:00,78.1,64.1,29.93,North,0,0.0,0.0,62,0.00,,,0.00,WUHU216HW,2013-07-25 10:05:00,
2013-07-25 03:07:00,78.1,64.1,29.93,North,0,0.0,0.0,62,0.00,,,0.00,WUHU216HW,2013-07-25 10:07:00,
2013-07-25 03:08:00,77.9,63.9,29.93,North,0,0.0,0.0,62,0.00,,,0.00,WUHU216HW,2013-07-25 10:08:00,
2013-07-25 03:09:00,77.9,63.9,29.94,North,0,0.0,0.0,62,0.00,,,0.00,WUHU216HW,2013-07-25 10:09:00,
2013-07-25 03:10:00,77.9,63.9,29.94,North,0,0.0,0.0,62,0.00,,,0.00,WUHU216HW,2013-07-25 10:10:00,
2013-07-25 03:12:00,77.9,63.9,29.94,North,0,0.0,0.0,62,0.00,,,0.00,WUHU216HW,2013-07-25 10:12:00,
2013-07-25 03:13:00,77.9,63.9,29.94,North,0,0.0,0.0,62,0.00,,,0.00,WUHU216HW,2013-07-25 10:13:00,
2013-07-25 03:14:00,77.8,63.7,29.94,North,0,0.0,0.0,62,0.00,,,0.00,WUHU216HW,2013-07-25 10:14:00,
2013-07-25 03:15:00,77.9,63.9,29.94,North,0,0.0,0.0,62,0.00,,,0.00,WUHU216HW,2013-07-25 10:15:00,
2013-07-25 03:17:00,77.8,63.7,29.94,North,0,0.0,0.0,62,0.00,,,0.00,WUHU216HW,2013-07-25 10:17:00,
2013-07-25 03:18:00,77.8,63.7,29.94,North,0,0.0,0.0,62,0.00,,,0.00,WUHU216HW,2013-07-25 10:18:00,
2013-07-25 03:22:00,77.8,64.2,29.94,North,0,0.0,0.0,63,0.00,,,0.00,WUHU216HW,2013-07-25 10:22:00,
2013-07-25 03:23:00,77.6,64.0,29.94,North,0,0.0,0.0,63,0.00,,,0.00,WUHU216HW,2013-07-25 10:23:00,
2013-07-25 03:28:00,77.6,64.0,29.95,North,0,0.0,0.0,63,0.00,,,0.00,WUHU216HW,2013-07-25 10:28:00,
2013-07-25 03:29:00,77.6,64.0,29.95,North,0,0.0,0.0,63,0.00,,,0.00,WUHU216HW,2013-07-25 10:29:00,
2013-07-25 03:30:00,77.6,64.0,29.95,North,0,0.0,0.0,63,0.00,,,0.00,WUHU216HW,2013-07-25 10:30:00,
2013-07-25 03:33:00,77.6,64.0,29.96,North,0,0.0,0.0,63,0.00,,,0.00,WUHU216HW,2013-07-25 10:33:00,
2013-07-25 03:34:00,77.4,63.8,29.96,North,0,0.0,0.0,63,0.00,,,0.00,WUHU216HW,2013-07-25 10:34:00,
2013-07-25 03:35:00,77.6,64.0,29.96,North,0,0.0,0.0,63,0.00,,,0.00,WUHU216HW,2013-07-25 10:35:00,
2013-07-25 03:37:00,77.4,63.8,29.96,North,0,0.0,0.0,63,0.00,,,0.00,WUHU216HW,2013-07-25 10:37:00,
2013-07-25 03:39:00,77.4,63.8,29.96,North,0,0.0,0.0,63,0.00,,,0.00,WUHU216HW,2013-07-25 10:39:00,
2013-07-25 03:40:00,77.4,64.3,29.96,North,0,0.0,0.0,64,0.00,,,0.00,WUHU216HW,2013-07-25 10:40:00,
2013-07-25 03:42:00,77.4,64.3,29.96,North,0,0.0,0.0,64,0.00,,,0.00,WUHU216HW,2013-07-25 10:42:00,
2013-07-25 03:44:00,77.4,64.3,29.96,North,0,0.0,0.0,64,0.00,,,0.00,WUHU216HW,2013-07-25 10:44:00,
2013-07-25 03:45:00,77.4,64.3,29.96,North,0,0.0,0.0,64,0.00,,,0.00,WUHU216HW,2013-07-25 10:45:00,
2013-07-25 03:46:00,77.4,64.3,29.96,North,0,0.0,0.0,64,0.00,,,0.00,WUHU216HW,2013-07-25 10:46:00,
2013-07-25 03:48:00,77.4,64.3,29.96,North,0,0.0,0.0,64,0.00,,,0.00,WUHU216HW,2013-07-25 10:48:00,
2013-07-25 03:49:00,77.4,64.3,29.96,North,0,0.0,0.0,64,0.00,,,0.00,WUHU216HW,2013-07-25 10:49:00,
2013-07-25 03:50:00,77.2,64.1,29.96,North,0,0.0,0.0,64,0.00,,,0.00,WUHU216HW,2013-07-25 10:50:00,
2013-07-25 03:51:00,77.2,64.1,29.96,North,0,0.0,0.0,64,0.00,,,0.00,WUHU216HW,2013-07-25 10:51:00,
2013-07-25 03:53:00,77.2,64.5,29.96,North,0,0.0,0.0,65,0.00,,,0.00,WUHU216HW,2013-07-25 10:53:00,
2013-07-25 03:55:00,77.2,64.5,29.96,North,0,0.0,0.0,65,0.00,,,0.00,WUHU216HW,2013-07-25 10:55:00,
2013-07-25 03:56:00,77.2,64.5,29.96,North,0,0.0,0.0,65,0.00,,,0.00,WUHU216HW,2013-07-25 10:56:00,
2013-07-25 03:57:00,77.2,64.5,29.96,North,0,0.0,0.0,65,0.00,,,0.00,WUHU216HW,2013-07-25 10:57:00,
2013-07-25 04:00:00,77.2,64.1,29.96,North,0,0.0,0.0,64,0.00,,,0.00,WUHU216HW,2013-07-25 11:00:00,
2013-07-25 04:01:00,77.0,63.9,29.96,North,0,0.0,0.0,64,0.00,,,0.00,WUHU216HW,2013-07-25 11:01:00,
2013-07-25 04:02:00,77.0,63.9,29.96,North,0,0.0,0.0,64,0.00,,,0.00,WUHU216HW,2013-07-25 11:02:00,
2013-07-25 04:03:00,77.0,63.9,29.96,North,0,0.0,0.0,64,0.00,,,0.00,WUHU216HW,2013-07-25 11:03:00,
2013-07-25 04:05:00,77.0,63.9,29.96,North,0,0.0,0.0,64,0.00,,,0.00,WUHU216HW,2013-07-25 11:05:00,
2013-07-25 04:07:00,77.0,64.4,29.96,North,0,0.0,0.0,65,0.00,,,0.00,WUHU216HW,2013-07-25 11:07:00,
2013-07-25 04:08:00,77.0,64.4,29.96,North,0,0.0,0.0,65,0.00,,,0.00,WUHU216HW,2013-07-25 11:08:00,
2013-07-25 04:09:00,77.0,64.4,29.96,North,0,0.0,0.0,65,0.00,,,0.00,WUHU216HW,2013-07-25 11:09:00,
2013-07-25 04:11:00,77.0,64.4,29.97,North,0,0.0,0.0,65,0.00,,,0.00,WUHU216HW,2013-07-25 11:11:00,
2013-07-25 04:12:00,77.0,64.4,29.97,North,0,0.0,0.0,65,0.00,,,0.00,WUHU216HW,2013-07-25 11:12:00,
2013-07-25 04:13:00,77.2,64.5,29.97,North,0,0.0,0.0,65,0.00,,,0.00,WUHU216HW,2013-07-25 11:13:00,
2013-07-25 04:14:00,77.2,64.5,29.97,North,0,0.0,0.0,65,0.00,,,0.00,WUHU216HW,2013-07-25 11:14:00,
2013-07-25 04:15:00,77.2,64.5,29.97,North,0,0.0,0.0,65,0.00,,,0.00,WUHU216HW,2013-07-25 11:15:00,
2013-07-25 04:18:00,77.4,64.3,29.97,North,0,0.0,0.0,64,0.00,,,0.00,WUHU216HW,2013-07-25 11:18:00,
2013-07-25 04:19:00,77.4,64.3,29.97,North,0,0.0,0.0,64,0.00,,,0.00,WUHU216HW,2013-07-25 11:19:00,
2013-07-25 04:21:00,77.4,64.3,29.97,North,0,0.0,0.0,64,0.00,,,0.00,WUHU216HW,2013-07-25 11:21:00,
2013-07-25 04:22:00,77.4,64.3,29.97,North,0,0.0,0.0,64,0.00,,,0.00,WUHU216HW,2013-07-25 11:22:00,
2013-07-25 04:23:00,77.4,64.3,29.97,North,0,0.0,0.0,64,0.00,,,0.00,WUHU216HW,2013-07-25 11:23:00,
2013-07-25 04:25:00,77.4,64.3,29.97,North,0,0.0,0.0,64,0.00,,,0.00,WUHU216HW,2013-07-25 11:25:00,
2013-07-25 04:26:00,77.4,64.3,29.97,North,0,0.0,0.0,64,0.00,,,0.00,WUHU216HW,2013-07-25 11:26:00,
2013-07-25 04:27:00,77.6,64.5,29.96,North,0,0.0,0.0,64,0.00,,,0.00,WUHU216HW,2013-07-25 11:27:00,
2013-07-25 04:29:00,77.6,64.5,29.97,North,0,0.0,0.0,64,0.00,,,0.00,WUHU216HW,2013-07-25 11:29:00,
2013-07-25 04:30:00,77.6,64.5,29.97,North,0,0.0,0.0,64,0.00,,,0.00,WUHU216HW,2013-07-25 11:30:00,
2013-07-25 04:31:00,77.6,64.5,29.97,North,0,0.0,0.0,64,0.00,,,0.00,WUHU216HW,2013-07-25 11:31:00,
2013-07-25 04:32:00,77.6,64.5,29.97,North,0,0.0,0.0,64,0.00,,,0.00,WUHU216HW,2013-07-25 11:32:00,
2013-07-25 04:33:00,77.6,64.5,29.97,North,0,0.0,0.0,64,0.00,,,0.00,WUHU216HW,2013-07-25 11:33:00,
2013-07-25 04:36:00,77.6,64.5,29.97,North,0,0.0,0.0,64,0.00,,,0.00,WUHU216HW,2013-07-25 11:36:00,
2013-07-25 04:37:00,77.6,64.5,29.97,North,0,0.0,0.0,64,0.00,,,0.00,WUHU216HW,2013-07-25 11:37:00,
2013-07-25 04:38:00,77.6,64.5,29.97,North,0,0.0,0.0,64,0.00,,,0.00,WUHU216HW,2013-07-25 11:38:00,
2013-07-25 04:39:00,77.6,64.5,29.97,North,0,0.0,0.0,64,0.00,,,0.00,WUHU216HW,2013-07-25 11:39:00,
2013-07-25 04:42:00,77.6,64.5,29.97,North,0,0.0,0.0,64,0.00,,,0.00,WUHU216HW,2013-07-25 11:42:00,
2013-07-25 04:43:00,77.6,64.5,29.97,North,0,0.0,0.0,64,0.00,,,0.00,WUHU216HW,2013-07-25 11:43:00,
2013-07-25 04:44:00,77.6,64.5,29.97,North,0,0.0,0.0,64,0.00,,,0.00,WUHU216HW,2013-07-25 11:44:00,
2013-07-25 04:46:00,77.6,64.5,29.97,North,0,0.0,0.0,64,0.00,,,0.00,WUHU216HW,2013-07-25 11:46:00,
2013-07-25 04:47:00,77.6,64.5,29.97,North,0,0.0,0.0,64,0.00,,,0.00,WUHU216HW,2013-07-25 11:47:00,
2013-07-25 04:49:00,77.6,64.5,29.97,North,0,0.0,0.0,64,0.00,,,0.00,WUHU216HW,2013-07-25 11:49:00,
2013-07-25 04:50:00,77.6,64.5,29.97,North,0,0.0,0.0,64,0.00,,,0.00,WUHU216HW,2013-07-25 11:50:00,
2013-07-25 04:51:00,77.6,64.9,29.97,North,0,0.0,0.0,65,0.00,,,0.00,WUHU216HW,2013-07-25 11:51:00,
2013-07-25 04:52:00,77.6,64.9,29.97,North,0,0.0,0.0,65,0.00,,,0.00,WUHU216HW,2013-07-25 11:52:00,
2013-07-25 04:54:00,77.6,64.9,29.97,North,0,0.0,0.0,65,0.00,,,0.00,WUHU216HW,2013-07-25 11:54:00,
2013-07-25 04:55:00,77.6,64.9,29.97,North,0,0.0,0.0,65,0.00,,,0.00,WUHU216HW,2013-07-25 11:55:00,
2013-07-25 04:57:00,77.6,64.9,29.97,North,0,0.0,0.0,65,0.00,,,0.00,WUHU216HW,2013-07-25 11:57:00,
2013-07-25 04:58:00,77.6,64.9,29.97,North,0,0.0,0.0,65,0.00,,,0.00,WUHU216HW,2013-07-25 11:58:00,
2013-07-25 04:59:00,77.4,64.7,29.97,North,0,0.0,0.0,65,0.00,,,0.00,WUHU216HW,2013-07-25 11:59:00,
2013-07-25 05:00:00,77.4,64.7,29.97,North,0,0.0,0.0,65,0.00,,,0.00,WUHU216HW,2013-07-25 12:00:00,
2013-07-25 05:02:00,77.4,64.7,29.97,North,0,0.0,0.0,65,0.00,,,0.00,WUHU216HW,2013-07-25 12:02:00,
2013-07-25 05:03:00,77.4,64.7,29.97,North,0,0.0,0.0,65,0.00,,,0.00,WUHU216HW,2013-07-25 12:03:00,
2013-07-25 05:04:00,77.4,64.7,29.97,North,0,0.0,0.0,65,0.00,,,0.00,WUHU216HW,2013-07-25 12:04:00,
2013-07-25 05:05:00,77.4,64.7,29.97,North,0,0.0,0.0,65,0.00,,,0.00,WUHU216HW,2013-07-25 12:05:00,
2013-07-25 05:07:00,77.4,64.7,29.97,North,0,0.0,0.0,65,0.00,,,0.00,WUHU216HW,2013-07-25 12:07:00,
2013-07-25 05:09:00,77.4,64.7,29.96,North,0,0.0,0.0,65,0.00,,,0.00,WUHU216HW,2013-07-25 12:09:00,
2013-07-25 05:10:00,77.4,64.7,29.96,North,0,0.0,0.0,65,0.00,,,0.00,WUHU216HW,2013-07-25 12:10:00,
2013-07-25 05:11:00,77.4,65.2,29.96,North,0,0.0,0.0,66,0.00,,,0.00,WUHU216HW,2013-07-25 12:11:00,
2013-07-25 05:12:00,77.4,65.2,29.96,North,0,0.0,0.0,66,0.00,,,0.00,WUHU216HW,2013-07-25 12:12:00,
2013-07-25 05:13:00,77.4,65.2,29.96,North,0,0.0,0.0,66,0.00,,,0.00,WUHU216HW,2013-07-25 12:13:00,
2013-07-25 05:15:00,77.4,65.2,29.96,North,0,0.0,0.0,66,0.00,,,0.00,WUHU216HW,2013-07-25 12:15:00,
2013-07-25 05:17:00,77.4,65.2,29.96,North,0,0.0,0.0,66,0.00,,,0.00,WUHU216HW,2013-07-25 12:17:00,
2013-07-25 05:18:00,77.4,65.2,29.96,North,0,0.0,0.0,66,0.00,,,0.00,WUHU216HW,2013-07-25 12:18:00,
2013-07-25 05:19:00,77.2,65.0,29.96,North,0,0.0,0.0,66,0.00,,,0.00,WUHU216HW,2013-07-25 12:19:00,
2013-07-25 05:20:00,77.4,65.2,29.96,North,0,0.0,0.0,66,0.00,,,0.00,WUHU216HW,2013-07-25 12:20:00,
2013-07-25 05:22:00,77.2,65.0,29.96,North,0,0.0,0.0,66,0.00,,,0.00,WUHU216HW,2013-07-25 12:22:00,
2013-07-25 05:23:00,77.2,65.0,29.96,North,0,0.0,0.0,66,0.00,,,0.00,WUHU216HW,2013-07-25 12:23:00,
2013-07-25 05:24:00,77.2,65.0,29.96,North,0,0.0,0.0,66,0.00,,,0.00,WUHU216HW,2013-07-25 12:24:00,
2013-07-25 05:25:00,77.2,65.0,29.96,North,0,0.0,0.0,66,0.00,,,0.00,WUHU216HW,2013-07-25 12:25:00,
2013-07-25 05:28:00,77.0,64.8,29.96,North,0,0.0,0.0,66,0.00,,,0.00,WUHU216HW,2013-07-25 12:28:00,
2013-07-25 05:29:00,77.0,64.8,29.96,North,0,0.0,0.0,66,0.00,,,0.00,WUHU216HW,2013-07-25 12:29:00,
2013-07-25 05:30:00,77.0,64.8,29.96,North,0,0.0,0.0,66,0.00,,,0.00,WUHU216HW,2013-07-25 12:30:00,
2013-07-25 05:33:00,77.0,64.4,29.97,North,0,0.0,0.0,65,0.00,,,0.00,WUHU216HW,2013-07-25 12:33:00,
2013-07-25 05:35:00,76.9,64.2,29.97,North,0,0.0,0.0,65,0.00,,,0.00,WUHU216HW,2013-07-25 12:35:00,
2013-07-25 05:36:00,76.9,64.2,29.97,North,0,0.0,0.0,65,0.00,,,0.00,WUHU216HW,2013-07-25 12:36:00,
2013-07-25 05:38:00,76.9,63.7,29.97,North,0,0.0,0.0,64,0.00,,,0.00,WUHU216HW,2013-07-25 12:38:00,
2013-07-25 05:40:00,76.7,64.0,29.97,North,0,0.0,0.0,65,0.00,,,0.00,WUHU216HW,2013-07-25 12:40:00,
2013-07-25 05:42:00,76.7,64.0,29.97,North,0,0.0,0.0,65,0.00,,,0.00,WUHU216HW,2013-07-25 12:42:00,
2013-07-25 05:44:00,76.7,64.0,29.97,North,0,0.0,0.0,65,0.00,,,0.00,WUHU216HW,2013-07-25 12:44:00,
2013-07-25 05:45:00,76.7,64.0,29.97,North,0,0.0,0.0,65,0.00,,,0.00,WUHU216HW,2013-07-25 12:45:00,
2013-07-25 05:46:00,76.7,63.5,29.97,North,0,0.0,0.0,64,0.00,,,0.00,WUHU216HW,2013-07-25 12:46:00,
2013-07-25 05:48:00,76.5,62.9,29.97,North,0,0.0,0.0,63,0.00,,,0.00,WUHU216HW,2013-07-25 12:48:00,
2013-07-25 05:49:00,76.5,62.5,29.97,North,0,0.0,0.0,62,0.00,,,0.00,WUHU216HW,2013-07-25 12:49:00,
2013-07-25 05:51:00,76.5,62.5,29.97,North,0,0.0,0.0,62,0.00,,,0.00,WUHU216HW,2013-07-25 12:51:00,
2013-07-25 05:53:00,76.3,61.9,29.97,North,0,0.0,0.0,61,0.00,,,0.00,WUHU216HW,2013-07-25 12:53:00,
2013-07-25 05:54:00,76.3,61.9,29.97,North,0,0.0,0.0,61,0.00,,,0.00,WUHU216HW,2013-07-25 12:54:00,
2013-07-25 05:55:00,76.3,61.9,29.97,North,0,0.0,0.0,61,0.00,,,0.00,WUHU216HW,2013-07-25 12:55:00,
2013-07-25 05:57:00,76.3,61.9,29.97,North,0,0.0,0.0,61,0.00,,,0.00,WUHU216HW,2013-07-25 12:57:00,
2013-07-25 05:59:00,76.1,62.2,29.97,North,0,0.0,0.0,62,0.00,,,0.00,WUHU216HW,2013-07-25 12:59:00,
2013-07-25 06:00:00,76.1,62.2,29.97,North,0,0.0,0.0,62,0.00,,,0.00,WUHU216HW,2013-07-25 13:00:00,
2013-07-25 06:04:00,76.0,62.0,29.97,North,0,0.0,0.0,62,0.00,,,0.00,WUHU216HW,2013-07-25 13:04:00,
2013-07-25 06:05:00,76.0,62.0,29.97,North,0,0.0,0.0,62,0.00,,,0.00,WUHU216HW,2013-07-25 13:05:00,
2013-07-25 06:09:00,75.6,61.7,29.97,North,0,0.0,0.0,62,0.00,,,0.00,WUHU216HW,2013-07-25 13:09:00,
2013-07-25 06:11:00,75.6,62.1,29.97,North,0,0.0,0.0,63,0.00,,,0.00,WUHU216HW,2013-07-25 13:11:00,
2013-07-25 06:12:00,75.6,62.6,29.97,North,0,0.0,0.0,64,0.00,,,0.00,WUHU216HW,2013-07-25 13:12:00,
2013-07-25 06:14:00,75.6,62.1,29.97,North,0,0.0,0.0,63,0.00,,,0.00,WUHU216HW,2013-07-25 13:14:00,
2013-07-25 06:17:00,75.4,61.9,29.97,North,0,0.0,0.0,63,0.00,,,0.00,WUHU216HW,2013-07-25 13:17:00,
2013-07-25 06:19:00,75.2,61.7,29.97,North,0,0.0,0.0,63,0.00,,,0.00,WUHU216HW,2013-07-25 13:19:00,
2013-07-25 06:20:00,75.2,62.2,29.97,North,0,0.0,0.0,64,0.00,,,0.00,WUHU216HW,2013-07-25 13:20:00,
2013-07-25 06:21:00,75.2,62.2,29.97,North,0,0.0,0.0,64,0.00,,,0.00,WUHU216HW,2013-07-25 13:21:00,
2013-07-25 06:22:00,75.2,62.6,29.97,North,0,0.0,0.0,65,0.00,,,0.00,WUHU216HW,2013-07-25 13:22:00,
2013-07-25 06:23:00,75.2,62.6,29.97,North,0,0.0,0.0,65,0.00,,,0.00,WUHU216HW,2013-07-25 13:23:00,
2013-07-25 06:24:00,75.2,63.1,29.97,North,0,0.0,0.0,66,0.00,,,0.00,WUHU216HW,2013-07-25 13:24:00,
2013-07-25 06:26:00,75.2,63.1,29.97,North,0,0.0,0.0,66,0.00,,,0.00,WUHU216HW,2013-07-25 13:26:00,
2013-07-25 06:27:00,75.2,63.1,29.97,North,0,0.0,0.0,66,0.00,,,0.00,WUHU216HW,2013-07-25 13:27:00,
2013-07-25 06:28:00,75.4,63.3,29.97,North,0,0.0,0.0,66,0.00,,,0.00,WUHU216HW,2013-07-25 13:28:00,
2013-07-25 06:31:00,75.4,63.3,29.97,North,0,0.0,0.0,66,0.00,,,0.00,WUHU216HW,2013-07-25 13:31:00,
2013-07-25 06:32:00,75.4,63.3,29.97,North,0,0.0,0.0,66,0.00,,,0.00,WUHU216HW,2013-07-25 13:32:00,
2013-07-25 06:33:00,75.4,63.3,29.97,North,0,0.0,0.0,66,0.00,,,0.00,WUHU216HW,2013-07-25 13:33:00,
2013-07-25 06:37:00,75.2,62.6,29.98,North,0,0.0,0.0,65,0.00,,,0.00,WUHU216HW,2013-07-25 13:37:00,
2013-07-25 06:38:00,75.2,62.2,29.98,North,0,0.0,0.0,64,0.00,,,0.00,WUHU216HW,2013-07-25 13:38:00,
2013-07-25 06:39:00,75.2,62.2,29.98,North,0,0.0,0.0,64,0.00,,,0.00,WUHU216HW,2013-07-25 13:39:00,
2013-07-25 06:42:00,75.1,62.0,29.98,North,0,0.0,0.0,64,0.00,,,0.00,WUHU216HW,2013-07-25 13:42:00,
2013-07-25 06:44:00,75.1,62.5,29.98,North,0,0.0,0.0,65,0.00,,,0.00,WUHU216HW,2013-07-25 13:44:00,
2013-07-25 06:45:00,74.9,62.3,29.98,North,0,0.0,0.0,65,0.00,,,0.00,WUHU216HW,2013-07-25 13:45:00,
2013-07-25 06:48:00,74.9,62.3,29.98,North,0,0.0,0.0,65,0.00,,,0.00,WUHU216HW,2013-07-25 13:48:00,
2013-07-25 06:49:00,74.9,62.3,29.98,North,0,0.0,0.0,65,0.00,,,0.00,WUHU216HW,2013-07-25 13:49:00,
2013-07-25 06:51:00,74.9,62.7,29.98,North,0,0.0,0.0,66,0.00,,,0.00,WUHU216HW,2013-07-25 13:51:00,
2013-07-25 06:52:00,75.1,62.9,29.98,North,0,0.0,0.0,66,0.00,,,0.00,WUHU216HW,2013-07-25 13:52:00,
2013-07-25 06:53:00,75.1,62.9,29.98,North,0,0.0,0.0,66,0.00,,,0.00,WUHU216HW,2013-07-25 13:53:00,
2013-07-25 06:55:00,75.2,63.1,29.98,North,0,0.0,0.0,66,0.00,,,0.00,WUHU216HW,2013-07-25 13:55:00,
2013-07-25 06:56:00,75.2,63.1,29.98,North,0,0.0,0.0,66,0.00,,,0.00,WUHU216HW,2013-07-25 13:56:00,
2013-07-25 06:57:00,75.4,63.3,29.98,North,0,0.0,0.0,66,0.00,,,0.00,WUHU216HW,2013-07-25 13:57:00,
2013-07-25 06:58:00,75.6,63.5,29.98,North,0,0.0,0.0,66,0.00,,,0.00,WUHU216HW,2013-07-25 13:58:00,
2013-07-25 07:00:00,75.8,63.6,29.98,North,0,0.0,0.0,66,0.00,,,0.00,WUHU216HW,2013-07-25 14:00:00,
2013-07-25 07:02:00,76.0,63.4,29.98,North,0,0.0,0.0,65,0.00,,,0.00,WUHU216HW,2013-07-25 14:02:00,
2013-07-25 07:04:00,76.0,63.4,29.98,North,0,0.0,0.0,65,0.00,,,0.00,WUHU216HW,2013-07-25 14:04:00,
2013-07-25 07:06:00,76.0,63.4,29.98,North,0,0.0,0.0,65,0.00,,,0.00,WUHU216HW,2013-07-25 14:06:00,
2013-07-25 07:07:00,76.0,62.9,29.98,North,0,0.0,0.0,64,0.00,,,0.00,WUHU216HW,2013-07-25 14:07:00,
2013-07-25 07:08:00,76.0,62.9,29.98,North,0,0.0,0.0,64,0.00,,,0.00,WUHU216HW,2013-07-25 14:08:00,
2013-07-25 07:09:00,76.0,63.4,29.98,North,0,0.0,0.0,65,0.00,,,0.00,WUHU216HW,2013-07-25 14:09:00,
2013-07-25 07:10:00,76.0,63.4,29.98,North,0,0.0,0.0,65,0.00,,,0.00,WUHU216HW,2013-07-25 14:10:00,
2013-07-25 07:13:00,76.0,63.4,29.98,North,0,0.0,0.0,65,0.00,,,0.00,WUHU216HW,2013-07-25 14:13:00,
2013-07-25 07:14:00,76.0,63.4,29.98,North,0,0.0,0.0,65,0.00,,,0.00,WUHU216HW,2013-07-25 14:14:00,
2013-07-25 07:15:00,76.0,63.4,29.98,North,0,0.0,0.0,65,0.00,,,0.00,WUHU216HW,2013-07-25 14:15:00,
2013-07-25 07:18:00,76.1,63.5,29.98,North,0,0.0,0.0,65,0.00,,,0.00,WUHU216HW,2013-07-25 14:18:00,
2013-07-25 07:19:00,76.1,63.5,29.98,North,0,0.0,0.0,65,0.00,,,0.00,WUHU216HW,2013-07-25 14:19:00,
2013-07-25 07:22:00,76.1,63.1,29.98,North,0,0.0,0.0,64,0.00,,,0.00,WUHU216HW,2013-07-25 14:22:00,
2013-07-25 07:23:00,76.3,63.2,29.98,North,0,0.0,0.0,64,0.00,,,0.00,WUHU216HW,2013-07-25 14:23:00,
2013-07-25 07:24:00,76.3,63.2,29.98,North,0,0.0,0.0,64,0.00,,,0.00,WUHU216HW,2013-07-25 14:24:00,
2013-07-25 07:28:00,76.5,63.4,29.98,North,0,0.0,0.0,64,0.00,,,0.00,WUHU216HW,2013-07-25 14:28:00,
2013-07-25 07:29:00,76.7,63.5,29.98,North,0,0.0,0.0,64,0.00,,,0.00,WUHU216HW,2013-07-25 14:29:00,
2013-07-25 07:30:00,76.7,63.5,29.98,North,0,0.0,0.0,64,0.00,,,0.00,WUHU216HW,2013-07-25 14:30:00,
2013-07-25 07:33:00,77.2,64.1,29.98,North,0,0.0,0.0,64,0.00,,,0.00,WUHU216HW,2013-07-25 14:33:00,
2013-07-25 07:34:00,77.4,63.8,29.98,North,0,0.0,0.0,63,0.00,,,0.00,WUHU216HW,2013-07-25 14:34:00,
2013-07-25 07:35:00,77.4,63.8,29.98,North,0,0.0,0.0,63,0.00,,,0.00,WUHU216HW,2013-07-25 14:35:00,
2013-07-25 07:36:00,77.6,64.0,29.98,North,0,0.0,0.0,63,0.00,,,0.00,WUHU216HW,2013-07-25 14:36:00,
2013-07-25 07:38:00,77.9,64.4,29.98,North,0,0.0,0.0,63,0.00,,,0.00,WUHU216HW,2013-07-25 14:38:00,
2013-07-25 07:41:00,78.1,64.5,29.98,North,0,0.0,0.0,63,0.00,,,0.00,WUHU216HW,2013-07-25 14:41:00,
2013-07-25 07:42:00,78.1,64.5,29.98,North,0,0.0,0.0,63,0.00,,,0.00,WUHU216HW,2013-07-25 14:42:00,
2013-07-25 07:43:00,78.1,64.1,29.98,North,0,0.0,0.0,62,0.00,,,0.00,WUHU216HW,2013-07-25 14:43:00,
2013-07-25 07:44:00,78.3,64.3,29.98,North,0,0.0,0.0,62,0.00,,,0.00,WUHU216HW,2013-07-25 14:44:00,
2013-07-25 07:47:00,78.3,64.3,29.98,North,0,0.0,0.0,62,0.00,,,0.00,WUHU216HW,2013-07-25 14:47:00,
2013-07-25 07:48:00,78.3,64.3,29.98,North,0,0.0,0.0,62,0.00,,,0.00,WUHU216HW,2013-07-25 14:48:00,
2013-07-25 07:49:00,78.3,64.3,29.98,North,0,0.0,0.0,62,0.00,,,0.00,WUHU216HW,2013-07-25 14:49:00,
2013-07-25 07:53:00,78.3,64.3,29.98,North,0,0.0,0.0,62,0.00,,,0.00,WUHU216HW,2013-07-25 14:53:00,
2013-07-25 07:54:00,78.5,64.5,29.99,North,0,0.0,0.0,62,0.00,,,0.00,WUHU216HW,2013-07-25 14:54:00,
2013-07-25 07:58:00,78.3,63.8,29.99,North,0,0.0,0.0,61,0.00,,,0.00,WUHU216HW,2013-07-25 14:58:00,
2013-07-25 07:59:00,78.5,64.5,29.99,North,0,0.0,0.0,62,0.00,,,0.00,WUHU216HW,2013-07-25 14:59:00,
2013-07-25 08:00:00,78.5,64.0,29.99,North,0,0.0,0.0,61,0.00,,,0.00,WUHU216HW,2013-07-25 15:00:00,
2013-07-25 08:03:00,78.7,64.6,29.99,North,0,0.0,0.0,62,0.00,,,0.00,WUHU216HW,2013-07-25 15:03:00,
2013-07-25 08:04:00,78.7,64.6,29.99,North,0,0.0,0.0,62,0.00,,,0.00,WUHU216HW,2013-07-25 15:04:00,
2013-07-25 08:05:00,78.8,64.8,29.99,North,0,0.0,0.0,62,0.00,,,0.00,WUHU216HW,2013-07-25 15:05:00,
2013-07-25 08:07:00,78.8,64.4,29.99,North,0,0.0,0.0,61,0.00,,,0.00,WUHU216HW,2013-07-25 15:07:00,
2013-07-25 08:09:00,78.8,63.9,29.99,North,0,0.0,0.0,60,0.00,,,0.00,WUHU216HW,2013-07-25 15:09:00,
2013-07-25 08:10:00,78.8,63.9,29.99,North,0,0.0,0.0,60,0.00,,,0.00,WUHU216HW,2013-07-25 15:10:00,
2013-07-25 08:12:00,79.0,64.1,29.99,North,0,0.0,0.0,60,0.00,,,0.00,WUHU216HW,2013-07-25 15:12:00,
2013-07-25 08:13:00,79.0,64.5,29.98,North,0,0.0,0.0,61,0.00,,,0.00,WUHU216HW,2013-07-25 15:13:00,
2013-07-25 08:15:00,79.2,64.3,29.99,North,0,0.0,0.0,60,0.00,,,0.00,WUHU216HW,2013-07-25 15:15:00,
2013-07-25 08:17:00,79.4,64.4,29.99,North,0,0.0,0.0,60,0.00,,,0.00,WUHU216HW,2013-07-25 15:17:00,
2013-07-25 08:18:00,79.4,64.4,29.99,North,0,0.0,0.0,60,0.00,,,0.00,WUHU216HW,2013-07-25 15:18:00,
2013-07-25 08:20:00,79.9,64.9,29.99,North,0,0.0,0.0,60,0.00,,,0.00,WUHU216HW,2013-07-25 15:20:00,
2013-07-25 08:23:00,80.3,63.6,29.99,North,0,0.0,0.0,57,0.00,,,0.00,WUHU216HW,2013-07-25 15:23:00,
2013-07-25 08:24:00,80.3,64.2,29.99,North,0,0.0,0.0,58,0.00,,,0.00,WUHU216HW,2013-07-25 15:24:00,
2013-07-25 08:26:00,80.6,64.4,29.99,North,0,0.0,0.0,58,0.00,,,0.00,WUHU216HW,2013-07-25 15:26:00,
2013-07-25 08:27:00,80.8,64.6,29.99,North,0,0.0,0.0,58,0.00,,,0.00,WUHU216HW,2013-07-25 15:27:00,
2013-07-25 08:28:00,81.0,64.8,29.99,North,0,0.0,0.0,58,0.00,,,0.00,WUHU216HW,2013-07-25 15:28:00,
2013-07-25 08:31:00,81.4,64.1,29.99,North,0,0.0,0.0,56,0.00,,,0.00,WUHU216HW,2013-07-25 15:31:00,
2013-07-25 08:33:00,81.7,64.5,29.99,North,0,0.0,0.0,56,0.00,,,0.00,WUHU216HW,2013-07-25 15:33:00,
2013-07-25 08:37:00,82.1,64.7,29.99,North,0,0.0,0.0,56,0.00,,,0.00,WUHU216HW,2013-07-25 15:37:00,
2013-07-25 08:39:00,82.3,64.9,29.99,North,0,0.0,0.0,56,0.00,,,0.00,WUHU216HW,2013-07-25 15:39:00,
2013-07-25 08:43:00,83.2,64.7,29.99,North,0,0.0,0.0,54,0.00,,,0.00,WUHU216HW,2013-07-25 15:43:00,
2013-07-25 08:44:00,83.2,64.2,29.99,North,0,0.0,0.0,53,0.00,,,0.00,WUHU216HW,2013-07-25 15:44:00,
2013-07-25 08:45:00,83.2,63.7,29.99,North,0,0.0,0.0,52,0.00,,,0.00,WUHU216HW,2013-07-25 15:45:00,
2013-07-25 08:49:00,83.2,64.2,29.99,North,0,0.0,0.0,53,0.00,,,0.00,WUHU216HW,2013-07-25 15:49:00,
2013-07-25 08:50:00,83.3,63.9,29.99,North,0,0.0,0.0,52,0.00,,,0.00,WUHU216HW,2013-07-25 15:50:00,
2013-07-25 08:53:00,83.3,63.9,29.99,North,0,0.0,0.0,52,0.00,,,0.00,WUHU216HW,2013-07-25 15:53:00,
2013-07-25 08:54:00,83.3,64.4,29.99,North,0,0.0,0.0,53,0.00,,,0.00,WUHU216HW,2013-07-25 15:54:00,
2013-07-25 08:55:00,83.5,64.1,29.99,North,0,0.0,0.0,52,0.00,,,0.00,WUHU216HW,2013-07-25 15:55:00,
2013-07-25 08:56:00,83.5,63.6,29.99,North,0,0.0,0.0,51,0.00,,,0.00,WUHU216HW,2013-07-25 15:56:00,
2013-07-25 08:58:00,83.5,63.6,29.99,North,0,0.0,0.0,51,0.00,,,0.00,WUHU216HW,2013-07-25 15:58:00,
2013-07-25 08:59:00,83.5,64.1,29.99,North,0,0.0,0.0,52,0.00,,,0.00,WUHU216HW,2013-07-25 15:59:00,
2013-07-25 09:00:00,83.5,64.1,29.99,North,0,0.0,0.0,52,0.00,,,0.00,WUHU216HW,2013-07-25 16:00:00,
2013-07-25 09:01:00,83.7,64.3,29.99,North,0,0.0,0.0,52,0.00,,,0.00,WUHU216HW,2013-07-25 16:01:00,
2013-07-25 09:02:00,83.5,63.0,29.99,North,0,0.0,0.0,50,0.00,,,0.00,WUHU216HW,2013-07-25 16:02:00,
2013-07-25 09:03:00,83.7,64.3,29.99,North,0,0.0,0.0,52,0.00,,,0.00,WUHU216HW,2013-07-25 16:03:00,
2013-07-25 09:05:00,83.7,63.7,29.99,North,0,0.0,0.0,51,0.00,,,0.00,WUHU216HW,2013-07-25 16:05:00,
2013-07-25 09:06:00,83.9,64.5,29.99,North,0,0.0,0.0,52,0.00,,,0.00,WUHU216HW,2013-07-25 16:06:00,
2013-07-25 09:07:00,83.9,63.4,29.99,North,0,0.0,0.0,50,0.00,,,0.00,WUHU216HW,2013-07-25 16:07:00,
2013-07-25 09:09:00,83.9,63.9,29.99,North,0,0.0,0.0,51,0.00,,,0.00,WUHU216HW,2013-07-25 16:09:00,
2013-07-25 09:10:00,83.9,63.4,29.99,North,0,0.0,0.0,50,0.00,,,0.00,WUHU216HW,2013-07-25 16:10:00,
2013-07-25 09:12:00,83.9,63.9,29.99,North,0,0.0,0.0,51,0.00,,,0.00,WUHU216HW,2013-07-25 16:12:00,
2013-07-25 09:13:00,83.9,63.9,29.99,North,0,0.0,0.0,51,0.00,,,0.00,WUHU216HW,2013-07-25 16:13:00,
2013-07-25 09:15:00,83.9,63.9,29.99,North,0,0.0,0.0,51,0.00,,,0.00,WUHU216HW,2013-07-25 16:15:00,
2013-07-25 09:17:00,83.9,63.4,29.99,North,0,0.0,0.0,50,0.00,,,0.00,WUHU216HW,2013-07-25 16:17:00,
2013-07-25 09:18:00,83.9,63.4,29.99,North,0,0.0,0.0,50,0.00,,,0.00,WUHU216HW,2013-07-25 16:18:00,
2013-07-25 09:20:00,83.9,63.9,29.99,North,0,0.0,0.0,51,0.00,,,0.00,WUHU216HW,2013-07-25 16:20:00,
2013-07-25 09:23:00,83.9,63.9,30.00,North,0,0.0,0.0,51,0.00,,,0.00,WUHU216HW,2013-07-25 16:23:00,
2013-07-25 09:24:00,83.9,63.9,30.00,North,0,0.0,0.0,51,0.00,,,0.00,WUHU216HW,2013-07-25 16:24:00,
2013-07-25 09:25:00,84.1,64.1,30.00,North,0,0.0,0.0,51,0.00,,,0.00,WUHU216HW,2013-07-25 16:25:00,
2013-07-25 09:29:00,84.2,63.7,30.00,North,0,0.0,0.0,50,0.00,,,0.00,WUHU216HW,2013-07-25 16:29:00,
2013-07-25 09:30:00,84.1,63.5,30.00,North,0,0.0,0.0,50,0.00,,,0.00,WUHU216HW,2013-07-25 16:30:00,
2013-07-25 09:31:00,84.1,64.1,30.00,North,0,0.0,0.0,51,0.00,,,0.00,WUHU216HW,2013-07-25 16:31:00,
2013-07-25 09:34:00,84.1,63.5,30.00,North,0,0.0,0.0,50,0.00,,,0.00,WUHU216HW,2013-07-25 16:34:00,
2013-07-25 09:35:00,84.1,63.5,30.00,North,0,0.0,0.0,50,0.00,,,0.00,WUHU216HW,2013-07-25 16:35:00,
2013-07-25 09:36:00,83.9,63.4,30.00,North,0,0.0,0.0,50,0.00,,,0.00,WUHU216HW,2013-07-25 16:36:00,
2013-07-25 09:37:00,83.9,63.4,30.00,North,0,0.0,0.0,50,0.00,,,0.00,WUHU216HW,2013-07-25 16:37:00,
2013-07-25 09:39:00,83.9,63.9,30.00,North,0,0.0,0.0,51,0.00,,,0.00,WUHU216HW,2013-07-25 16:39:00,
2013-07-25 09:40:00,83.9,63.9,30.00,North,0,0.0,0.0,51,0.00,,,0.00,WUHU216HW,2013-07-25 16:40:00,
2013-07-25 09:42:00,83.9,63.9,30.00,North,0,0.0,0.0,51,0.00,,,0.00,WUHU216HW,2013-07-25 16:42:00,
2013-07-25 09:43:00,83.9,64.5,30.00,North,0,0.0,0.0,52,0.00,,,0.00,WUHU216HW,2013-07-25 16:43:00,
2013-07-25 09:45:00,83.9,64.5,30.00,North,0,0.0,0.0,52,0.00,,,0.00,WUHU216HW,2013-07-25 16:45:00,
2013-07-25 09:46:00,83.9,64.5,30.00,North,0,0.0,0.0,52,0.00,,,0.00,WUHU216HW,2013-07-25 16:46:00,
2013-07-25 09:48:00,83.9,64.5,30.00,North,0,0.0,0.0,52,0.00,,,0.00,WUHU216HW,2013-07-25 16:48:00,
2013-07-25 09:49:00,83.9,64.5,30.00,North,0,0.0,0.0,52,0.00,,,0.00,WUHU216HW,2013-07-25 16:49:00,
2013-07-25 09:51:00,83.9,63.9,30.00,North,0,0.0,0.0,51,0.00,,,0.00,WUHU216HW,2013-07-25 16:51:00,
2013-07-25 09:52:00,83.9,63.9,30.00,North,0,0.0,0.0,51,0.00,,,0.00,WUHU216HW,2013-07-25 16:52:00,
2013-07-25 09:54:00,84.1,64.1,30.00,North,0,0.0,0.0,51,0.00,,,0.00,WUHU216HW,2013-07-25 16:54:00,
2013-07-25 09:55:00,84.1,64.1,30.00,North,0,0.0,0.0,51,0.00,,,0.00,WUHU216HW,2013-07-25 16:55:00,
2013-07-25 09:56:00,84.2,64.3,30.00,North,0,0.0,0.0,51,0.00,,,0.00,WUHU216HW,2013-07-25 16:56:00,
2013-07-25 09:58:00,84.2,63.7,30.00,North,0,0.0,0.0,50,0.00,,,0.00,WUHU216HW,2013-07-25 16:58:00,
2013-07-25 10:00:00,84.4,64.5,30.00,North,0,0.0,0.0,51,0.00,,,0.00,WUHU216HW,2013-07-25 17:00:00,
2013-07-25 10:02:00,84.4,64.5,30.00,North,0,0.0,0.0,51,0.00,,,0.00,WUHU216HW,2013-07-25 17:02:00,
2013-07-25 10:04:00,84.6,64.5,30.00,North,0,0.0,0.0,51,0.00,,,0.00,WUHU216HW,2013-07-25 17:04:00,
2013-07-25 10:05:00,84.6,64.5,30.00,North,0,0.0,0.0,51,0.00,,,0.00,WUHU216HW,2013-07-25 17:05:00,
2013-07-25 10:06:00,84.6,65.1,30.00,North,0,0.0,0.0,52,0.00,,,0.00,WUHU216HW,2013-07-25 17:06:00,
2013-07-25 10:08:00,84.8,64.7,30.00,North,0,0.0,0.0,51,0.00,,,0.00,WUHU216HW,2013-07-25 17:08:00,
2013-07-25 10:10:00,84.6,64.5,30.00,North,0,0.0,0.0,51,0.00,,,0.00,WUHU216HW,2013-07-25 17:10:00,
2013-07-25 10:11:00,84.8,64.7,30.00,North,0,0.0,0.0,51,0.00,,,0.00,WUHU216HW,2013-07-25 17:11:00,
2013-07-25 10:12:00,84.6,64.5,30.00,North,0,0.0,0.0,51,0.00,,,0.00,WUHU216HW,2013-07-25 17:12:00,
2013-07-25 10:13:00,84.8,64.7,30.00,North,0,0.0,0.0,51,0.00,,,0.00,WUHU216HW,2013-07-25 17:13:00,
2013-07-25 10:14:00,84.6,64.5,30.00,North,0,0.0,0.0,51,0.00,,,0.00,WUHU216HW,2013-07-25 17:14:00,
2013-07-25 10:17:00,84.6,64.5,30.00,North,0,0.0,0.0,51,0.00,,,0.00,WUHU216HW,2013-07-25 17:17:00,
2013-07-25 10:18:00,84.8,65.3,30.01,North,0,0.0,0.0,52,0.00,,,0.00,WUHU216HW,2013-07-25 17:18:00,
2013-07-25 10:20:00,85.0,65.4,30.00,North,0,0.0,0.0,52,0.00,,,0.00,WUHU216HW,2013-07-25 17:20:00,
2013-07-25 10:23:00,85.1,65.1,30.00,North,0,0.0,0.0,51,0.00,,,0.00,WUHU216HW,2013-07-25 17:23:00,
2013-07-25 10:24:00,85.3,65.3,30.00,North,0,0.0,0.0,51,0.00,,,0.00,WUHU216HW,2013-07-25 17:24:00,
2013-07-25 10:26:00,85.5,65.3,30.00,North,0,0.0,0.0,51,0.00,,,0.00,WUHU216HW,2013-07-25 17:26:00,
2013-07-25 10:28:00,85.9,65.7,30.00,North,0,0.0,0.0,51,0.00,,,0.00,WUHU216HW,2013-07-25 17:28:00,
2013-07-25 10:29:00,85.9,65.2,30.00,North,0,0.0,0.0,50,0.00,,,0.00,WUHU216HW,2013-07-25 17:29:00,
2013-07-25 10:33:00,86.0,65.3,30.00,North,0,0.0,0.0,50,0.00,,,0.00,WUHU216HW,2013-07-25 17:33:00,
2013-07-25 10:34:00,86.0,65.3,30.00,North,0,0.0,0.0,50,0.00,,,0.00,WUHU216HW,2013-07-25 17:34:00,
2013-07-25 10:35:00,86.2,65.5,30.00,North,0,0.0,0.0,50,0.00,,,0.00,WUHU216HW,2013-07-25 17:35:00,
2013-07-25 10:39:00,86.4,65.7,30.00,North,0,0.0,0.0,50,0.00,,,0.00,WUHU216HW,2013-07-25 17:39:00,
2013-07-25 10:40:00,86.4,65.1,30.00,North,0,0.0,0.0,49,0.00,,,0.00,WUHU216HW,2013-07-25 17:40:00,
2013-07-25 10:41:00,86.4,65.1,30.00,North,0,0.0,0.0,49,0.00,,,0.00,WUHU216HW,2013-07-25 17:41:00,
2013-07-25 10:44:00,86.8,65.3,30.00,North,0,0.0,0.0,49,0.00,,,0.00,WUHU216HW,2013-07-25 17:44:00,
2013-07-25 10:45:00,86.9,65.5,30.00,North,0,0.0,0.0,49,0.00,,,0.00,WUHU216HW,2013-07-25 17:45:00,
2013-07-25 10:47:00,86.9,64.9,30.00,North,0,0.0,0.0,48,0.00,,,0.00,WUHU216HW,2013-07-25 17:47:00,
2013-07-25 10:50:00,87.1,65.7,30.00,North,0,0.0,0.0,49,0.00,,,0.00,WUHU216HW,2013-07-25 17:50:00,
2013-07-25 10:52:00,87.3,65.9,30.00,North,0,0.0,0.0,49,0.00,,,0.00,WUHU216HW,2013-07-25 17:52:00,
2013-07-25 10:53:00,87.3,65.3,30.00,North,0,0.0,0.0,48,0.00,,,0.00,WUHU216HW,2013-07-25 17:53:00,
2013-07-25 10:55:00,87.5,66.0,30.00,North,0,0.0,0.0,49,0.00,,,0.00,WUHU216HW,2013-07-25 17:55:00,
2013-07-25 10:57:00,87.5,65.3,30.00,North,0,0.0,0.0,48,0.00,,,0.00,WUHU216HW,2013-07-25 17:57:00,
2013-07-25 10:58:00,87.5,65.3,30.00,North,0,0.0,0.0,48,0.00,,,0.00,WUHU216HW,2013-07-25 17:58:00,
2013-07-25 10:59:00,87.5,64.7,30.00,North,0,0.0,0.0,47,0.00,,,0.00,WUHU216HW,2013-07-25 17:59:00,
2013-07-25 11:00:00,87.5,64.1,30.00,North,0,0.0,0.0,46,0.00,,,0.00,WUHU216HW,2013-07-25 18:00:00,
2013-07-25 11:01:00,87.5,64.1,30.00,North,0,0.0,0.0,46,0.00,,,0.00,WUHU216HW,2013-07-25 18:01:00,
2013-07-25 11:03:00,87.3,64.0,30.00,North,0,0.0,0.0,46,0.00,,,0.00,WUHU216HW,2013-07-25 18:03:00,
2013-07-25 11:05:00,87.1,63.8,30.00,North,0,0.0,0.0,46,0.00,,,0.00,WUHU216HW,2013-07-25 18:05:00,
2013-07-25 11:06:00,87.1,63.8,30.00,North,0,0.0,0.0,46,0.00,,,0.00,WUHU216HW,2013-07-25 18:06:00,
2013-07-25 11:10:00,86.9,64.3,30.00,North,0,0.0,0.0,47,0.00,,,0.00,WUHU216HW,2013-07-25 18:10:00,
2013-07-25 11:11:00,86.9,64.3,30.00,North,0,0.0,0.0,47,0.00,,,0.00,WUHU216HW,2013-07-25 18:11:00,
2013-07-25 11:12:00,86.8,64.1,30.00,North,0,0.0,0.0,47,0.00,,,0.00,WUHU216HW,2013-07-25 18:12:00,
2013-07-25 11:17:00,86.9,64.3,29.99,North,0,0.0,0.0,47,0.00,,,0.00,WUHU216HW,2013-07-25 18:17:00,
2013-07-25 11:18:00,87.1,64.5,29.99,North,0,0.0,0.0,47,0.00,,,0.00,WUHU216HW,2013-07-25 18:18:00,
2013-07-25 11:22:00,87.3,64.6,29.99,North,0,0.0,0.0,47,0.00,,,0.00,WUHU216HW,2013-07-25 18:22:00,
2013-07-25 11:23:00,87.3,64.6,29.99,North,0,0.0,0.0,47,0.00,,,0.00,WUHU216HW,2013-07-25 18:23:00,
2013-07-25 11:27:00,87.3,64.6,29.99,North,0,0.0,0.0,47,0.00,,,0.00,WUHU216HW,2013-07-25 18:27:00,
2013-07-25 11:28:00,87.3,64.6,29.99,North,0,0.0,0.0,47,0.00,,,0.00,WUHU216HW,2013-07-25 18:28:00,
2013-07-25 11:29:00,87.3,64.0,29.99,North,0,0.0,0.0,46,0.00,,,0.00,WUHU216HW,2013-07-25 18:29:00,
2013-07-25 11:31:00,87.3,64.6,29.99,North,0,0.0,0.0,47,0.00,,,0.00,WUHU216HW,2013-07-25 18:31:00,
2013-07-25 11:33:00,87.3,64.6,29.99,North,0,0.0,0.0,47,0.00,,,0.00,WUHU216HW,2013-07-25 18:33:00,
2013-07-25 11:34:00,87.3,64.6,29.99,North,0,0.0,0.0,47,0.00,,,0.00,WUHU216HW,2013-07-25 18:34:00,
2013-07-25 11:35:00,87.3,64.6,29.99,North,0,0.0,0.0,47,0.00,,,0.00,WUHU216HW,2013-07-25 18:35:00,
2013-07-25 11:36:00,87.5,64.7,29.99,North,0,0.0,0.0,47,0.00,,,0.00,WUHU216HW,2013-07-25 18:36:00,
2013-07-25 11:39:00,87.5,64.1,29.99,North,0,0.0,0.0,46,0.00,,,0.00,WUHU216HW,2013-07-25 18:39:00,
2013-07-25 11:40:00,87.5,64.1,29.99,North,0,0.0,0.0,46,0.00,,,0.00,WUHU216HW,2013-07-25 18:40:00,
2013-07-25 11:41:00,87.3,64.0,29.99,North,0,0.0,0.0,46,0.00,,,0.00,WUHU216HW,2013-07-25 18:41:00,
2013-07-25 11:42:00,87.3,64.0,29.99,North,0,0.0,0.0,46,0.00,,,0.00,WUHU216HW,2013-07-25 18:42:00,
2013-07-25 11:44:00,87.1,63.8,29.99,North,0,0.0,0.0,46,0.00,,,0.00,WUHU216HW,2013-07-25 18:44:00,
2013-07-25 11:45:00,87.1,64.5,29.99,North,0,0.0,0.0,47,0.00,,,0.00,WUHU216HW,2013-07-25 18:45:00,
2013-07-25 11:46:00,87.1,64.5,29.98,North,0,0.0,0.0,47,0.00,,,0.00,WUHU216HW,2013-07-25 18:46:00,
2013-07-25 11:47:00,87.1,64.5,29.98,North,0,0.0,0.0,47,0.00,,,0.00,WUHU216HW,2013-07-25 18:47:00,
2013-07-25 11:50:00,87.3,64.6,29.98,North,0,0.0,0.0,47,0.00,,,0.00,WUHU216HW,2013-07-25 18:50:00,
2013-07-25 11:51:00,87.5,64.7,29.98,North,0,0.0,0.0,47,0.00,,,0.00,WUHU216HW,2013-07-25 18:51:00,
2013-07-25 11:52:00,87.5,64.7,29.98,North,0,0.0,0.0,47,0.00,,,0.00,WUHU216HW,2013-07-25 18:52:00,
2013-07-25 11:54:00,88.0,64.0,29.98,North,0,0.0,0.0,45,0.00,,,0.00,WUHU216HW,2013-07-25 18:54:00,
2013-07-25 11:55:00,88.0,64.0,29.98,North,0,0.0,0.0,45,0.00,,,0.00,WUHU216HW,2013-07-25 18:55:00,
2013-07-25 11:56:00,88.0,64.0,29.98,North,0,0.0,0.0,45,0.00,,,0.00,WUHU216HW,2013-07-25 18:56:00,
2013-07-25 11:58:00,88.2,64.1,29.98,North,0,0.0,0.0,45,0.00,,,0.00,WUHU216HW,2013-07-25 18:58:00,
2013-07-25 12:00:00,88.2,64.1,29.98,North,0,0.0,0.0,45,0.00,,,0.00,WUHU216HW,2013-07-25 19:00:00,
2013-07-25 12:02:00,88.2,64.1,29.98,North,0,0.0,0.0,45,0.00,,,0.00,WUHU216HW,2013-07-25 19:02:00,
2013-07-25 12:03:00,88.2,64.1,29.98,North,0,0.0,0.0,45,0.00,,,0.00,WUHU216HW,2013-07-25 19:03:00,
2013-07-25 12:05:00,88.4,63.6,29.98,North,0,0.0,0.0,44,0.00,,,0.00,WUHU216HW,2013-07-25 19:05:00,
2013-07-25 12:07:00,88.6,64.5,29.97,North,0,0.0,0.0,45,0.00,,,0.00,WUHU216HW,2013-07-25 19:07:00,
2013-07-25 12:08:00,88.7,63.9,29.97,North,0,0.0,0.0,44,0.00,,,0.00,WUHU216HW,2013-07-25 19:08:00,
2013-07-25 12:09:00,88.7,64.6,29.97,North,0,0.0,0.0,45,0.00,,,0.00,WUHU216HW,2013-07-25 19:09:00,
2013-07-25 12:13:00,89.5,64.5,29.97,North,0,0.0,0.0,44,0.00,,,0.00,WUHU216HW,2013-07-25 19:13:00,
2013-07-25 12:14:00,89.5,64.5,29.97,North,0,0.0,0.0,44,0.00,,,0.00,WUHU216HW,2013-07-25 19:14:00,
2013-07-25 12:16:00,89.6,64.1,29.97,North,0,0.0,0.0,43,0.00,,,0.00,WUHU216HW,2013-07-25 19:16:00,
2013-07-25 12:19:00,89.6,63.4,29.97,North,0,0.0,0.0,42,0.00,,,0.00,WUHU216HW,2013-07-25 19:19:00,
2013-07-25 12:20:00,89.8,64.2,29.97,North,0,0.0,0.0,43,0.00,,,0.00,WUHU216HW,2013-07-25 19:20:00,
2013-07-25 12:22:00,89.6,64.1,29.97,North,0,0.0,0.0,43,0.00,,,0.00,WUHU216HW,2013-07-25 19:22:00,
2013-07-25 12:24:00,89.5,63.9,29.97,North,0,0.0,0.0,43,0.00,,,0.00,WUHU216HW,2013-07-25 19:24:00,
2013-07-25 12:25:00,89.5,64.5,29.97,North,0,0.0,0.0,44,0.00,,,0.00,WUHU216HW,2013-07-25 19:25:00,
2013-07-25 12:26:00,89.5,63.9,29.97,North,0,0.0,0.0,43,0.00,,,0.00,WUHU216HW,2013-07-25 19:26:00,
2013-07-25 12:28:00,89.3,63.7,29.97,North,0,0.0,0.0,43,0.00,,,0.00,WUHU216HW,2013-07-25 19:28:00,
2013-07-25 12:29:00,89.3,64.4,29.97,North,0,0.0,0.0,44,0.00,,,0.00,WUHU216HW,2013-07-25 19:29:00,
2013-07-25 12:31:00,89.3,64.4,29.97,North,0,0.0,0.0,44,0.00,,,0.00,WUHU216HW,2013-07-25 19:31:00,
2013-07-25 12:33:00,89.5,64.5,29.96,North,0,0.0,0.0,44,0.00,,,0.00,WUHU216HW,2013-07-25 19:33:00,
2013-07-25 12:36:00,89.6,64.7,29.96,North,0,0.0,0.0,44,0.00,,,0.00,WUHU216HW,2013-07-25 19:36:00,
2013-07-25 12:37:00,89.6,64.7,29.96,North,0,0.0,0.0,44,0.00,,,0.00,WUHU216HW,2013-07-25 19:37:00,
2013-07-25 12:38:00,89.8,64.2,29.96,North,0,0.0,0.0,43,0.00,,,0.00,WUHU216HW,2013-07-25 19:38:00,
2013-07-25 12:39:00,90.0,65.0,29.96,North,0,0.0,0.0,44,0.00,,,0.00,WUHU216HW,2013-07-25 19:39:00,
2013-07-25 12:41:00,90.2,64.5,29.96,North,0,0.0,0.0,43,0.00,,,0.00,WUHU216HW,2013-07-25 19:41:00,
2013-07-25 12:42:00,90.4,64.1,29.96,North,0,0.0,0.0,42,0.00,,,0.00,WUHU216HW,2013-07-25 19:42:00,
2013-07-25 12:43:00,90.4,64.1,29.96,North,0,0.0,0.0,42,0.00,,,0.00,WUHU216HW,2013-07-25 19:43:00,
2013-07-25 12:45:00,90.4,64.1,29.96,North,0,0.0,0.0,42,0.00,,,0.00,WUHU216HW,2013-07-25 19:45:00,
2013-07-25 12:47:00,90.4,64.1,29.96,North,0,0.0,0.0,42,0.00,,,0.00,WUHU216HW,2013-07-25 19:47:00,
2013-07-25 12:48:00,90.4,64.7,29.96,North,0,0.0,0.0,43,0.00,,,0.00,WUHU216HW,2013-07-25 19:48:00,
2013-07-25 12:49:00,90.4,64.7,29.96,North,0,0.0,0.0,43,0.00,,,0.00,WUHU216HW,2013-07-25 19:49:00,
2013-07-25 12:50:00,90.2,63.9,29.96,North,0,0.0,0.0,42,0.00,,,0.00,WUHU216HW,2013-07-25 19:50:00,
2013-07-25 12:51:00,90.4,64.7,29.96,North,0,0.0,0.0,43,0.00,,,0.00,WUHU216HW,2013-07-25 19:51:00,
2013-07-25 12:53:00,90.4,64.1,29.96,North,0,0.0,0.0,42,0.00,,,0.00,WUHU216HW,2013-07-25 19:53:00,
2013-07-25 12:54:00,90.4,64.1,29.96,North,0,0.0,0.0,42,0.00,,,0.00,WUHU216HW,2013-07-25 19:54:00,
2013-07-25 12:55:00,90.4,64.1,29.96,North,0,0.0,0.0,42,0.00,,,0.00,WUHU216HW,2013-07-25 19:55:00,
2013-07-25 12:56:00,90.4,64.1,29.96,North,0,0.0,0.0,42,0.00,,,0.00,WUHU216HW,2013-07-25 19:56:00,
2013-07-25 12:58:00,90.5,64.2,29.96,North,0,0.0,0.0,42,0.00,,,0.00,WUHU216HW,2013-07-25 19:58:00,
2013-07-25 12:59:00,90.7,64.4,29.96,North,0,0.0,0.0,42,0.00,,,0.00,WUHU216HW,2013-07-25 19:59:00,
2013-07-25 13:00:00,90.7,65.0,29.96,North,0,0.0,0.0,43,0.00,,,0.00,WUHU216HW,2013-07-25 20:00:00,
2013-07-25 13:01:00,90.7,64.4,29.96,North,0,0.0,0.0,42,0.00,,,0.00,WUHU216HW,2013-07-25 20:01:00,
2013-07-25 13:04:00,90.9,64.5,29.96,North,0,0.0,0.0,42,0.00,,,0.00,WUHU216HW,2013-07-25 20:04:00,
2013-07-25 13:05:00,91.1,64.7,29.96,North,0,0.0,0.0,42,0.00,,,0.00,WUHU216HW,2013-07-25 20:05:00,
2013-07-25 13:06:00,91.1,64.7,29.96,North,0,0.0,0.0,42,0.00,,,0.00,WUHU216HW,2013-07-25 20:06:00,
2013-07-25 13:08:00,91.3,64.2,29.96,North,0,0.0,0.0,41,0.00,,,0.00,WUHU216HW,2013-07-25 20:08:00,
2013-07-25 13:09:00,91.3,64.9,29.96,North,0,0.0,0.0,42,0.00,,,0.00,WUHU216HW,2013-07-25 20:09:00,
2013-07-25 13:10:00,91.4,64.4,29.96,North,0,0.0,0.0,41,0.00,,,0.00,WUHU216HW,2013-07-25 20:10:00,
2013-07-25 13:11:00,91.4,64.4,29.96,North,0,0.0,0.0,41,0.00,,,0.00,WUHU216HW,2013-07-25 20:11:00,
2013-07-25 13:13:00,91.4,64.4,29.96,North,0,0.0,0.0,41,0.00,,,0.00,WUHU216HW,2013-07-25 20:13:00,
2013-07-25 13:15:00,91.4,64.4,29.97,North,0,0.0,0.0,41,0.00,,,0.00,WUHU216HW,2013-07-25 20:15:00,
2013-07-25 13:17:00,91.4,64.4,29.96,North,0,0.0,0.0,41,0.00,,,0.00,WUHU216HW,2013-07-25 20:17:00,
2013-07-25 13:18:00,91.4,64.4,29.97,North,0,0.0,0.0,41,0.00,,,0.00,WUHU216HW,2013-07-25 20:18:00,
2013-07-25 13:19:00,91.4,64.4,29.96,North,0,0.0,0.0,41,0.00,,,0.00,WUHU216HW,2013-07-25 20:19:00,
2013-07-25 13:21:00,91.3,64.2,29.96,North,0,0.0,0.0,41,0.00,,,0.00,WUHU216HW,2013-07-25 20:21:00,
2013-07-25 13:22:00,91.3,64.2,29.96,North,0,0.0,0.0,41,0.00,,,0.00,WUHU216HW,2013-07-25 20:22:00,
2013-07-25 13:23:00,91.3,64.2,29.96,North,0,0.0,0.0,41,0.00,,,0.00,WUHU216HW,2013-07-25 20:23:00,
2013-07-25 13:24:00,91.3,64.2,29.96,North,0,0.0,0.0,41,0.00,,,0.00,WUHU216HW,2013-07-25 20:24:00,
2013-07-25 13:25:00,91.3,64.2,29.96,North,0,0.0,0.0,41,0.00,,,0.00,WUHU216HW,2013-07-25 20:25:00,
2013-07-25 13:28:00,91.4,64.4,29.96,North,0,0.0,0.0,41,0.00,,,0.00,WUHU216HW,2013-07-25 20:28:00,
2013-07-25 13:29:00,91.4,65.0,29.96,North,0,0.0,0.0,42,0.00,,,0.00,WUHU216HW,2013-07-25 20:29:00,
2013-07-25 13:31:00,91.6,65.2,29.96,North,0,0.0,0.0,42,0.00,,,0.00,WUHU216HW,2013-07-25 20:31:00,
2013-07-25 13:33:00,92.0,64.9,29.96,North,0,0.0,0.0,41,0.00,,,0.00,WUHU216HW,2013-07-25 20:33:00,
2013-07-25 13:34:00,92.2,65.0,29.96,North,0,0.0,0.0,41,0.00,,,0.00,WUHU216HW,2013-07-25 20:34:00,
2013-07-25 13:35:00,92.2,64.4,29.96,North,0,0.0,0.0,40,0.00,,,0.00,WUHU216HW,2013-07-25 20:35:00,
2013-07-25 13:36:00,92.2,65.0,29.96,North,0,0.0,0.0,41,0.00,,,0.00,WUHU216HW,2013-07-25 20:36:00,
2013-07-25 13:38:00,92.3,65.2,29.96,North,0,0.0,0.0,41,0.00,,,0.00,WUHU216HW,2013-07-25 20:38:00,
2013-07-25 13:39:00,92.5,65.3,29.96,North,0,0.0,0.0,41,0.00,,,0.00,WUHU216HW,2013-07-25 20:39:00,
2013-07-25 13:41:00,92.5,65.3,29.96,North,0,0.0,0.0,41,0.00,,,0.00,WUHU216HW,2013-07-25 20:41:00,
2013-07-25 13:42:00,92.7,64.9,29.96,North,0,0.0,0.0,40,0.00,,,0.00,WUHU216HW,2013-07-25 20:42:00,
2013-07-25 13:43:00,92.7,64.9,29.96,North,0,0.0,0.0,40,0.00,,,0.00,WUHU216HW,2013-07-25 20:43:00,
2013-07-25 13:47:00,93.1,64.4,29.96,North,0,0.0,0.0,39,0.00,,,0.00,WUHU216HW,2013-07-25 20:47:00,
2013-07-25 13:48:00,93.1,65.2,29.96,North,0,0.0,0.0,40,0.00,,,0.00,WUHU216HW,2013-07-25 20:48:00,
2013-07-25 13:49:00,93.2,64.5,29.96,North,0,0.0,0.0,39,0.00,,,0.00,WUHU216HW,2013-07-25 20:49:00,
2013-07-25 13:52:00,93.2,64.5,29.96,North,0,0.0,0.0,39,0.00,,,0.00,WUHU216HW,2013-07-25 20:52:00,
2013-07-25 13:54:00,93.2,65.3,29.96,North,0,0.0,0.0,40,0.00,,,0.00,WUHU216HW,2013-07-25 20:54:00,
2013-07-25 13:55:00,93.4,65.5,29.96,North,0,0.0,0.0,40,0.00,,,0.00,WUHU216HW,2013-07-25 20:55:00,
2013-07-25 13:57:00,93.4,64.7,29.96,North,0,0.0,0.0,39,0.00,,,0.00,WUHU216HW,2013-07-25 20:57:00,
2013-07-25 13:58:00,93.4,64.7,29.96,North,0,0.0,0.0,39,0.00,,,0.00,WUHU216HW,2013-07-25 20:58:00,
2013-07-25 13:59:00,93.2,64.5,29.96,North,0,0.0,0.0,39,0.00,,,0.00,WUHU216HW,2013-07-25 20:59:00,
2013-07-25 14:00:00,93.2,64.5,29.96,North,0,0.0,0.0,39,0.00,,,0.00,WUHU216HW,2013-07-25 21:00:00,
2013-07-25 14:02:00,93.2,64.5,29.96,North,0,0.0,0.0,39,0.00,,,0.00,WUHU216HW,2013-07-25 21:02:00,
2013-07-25 14:03:00,93.1,64.4,29.96,North,0,0.0,0.0,39,0.00,,,0.00,WUHU216HW,2013-07-25 21:03:00,
2013-07-25 14:04:00,93.1,64.4,29.95,North,0,0.0,0.0,39,0.00,,,0.00,WUHU216HW,2013-07-25 21:04:00,
2013-07-25 14:05:00,92.9,64.2,29.95,North,0,0.0,0.0,39,0.00,,,0.00,WUHU216HW,2013-07-25 21:05:00,
2013-07-25 14:07:00,92.9,64.2,29.95,North,0,0.0,0.0,39,0.00,,,0.00,WUHU216HW,2013-07-25 21:07:00,
2013-07-25 14:08:00,92.9,64.2,29.95,North,0,0.0,0.0,39,0.00,,,0.00,WUHU216HW,2013-07-25 21:08:00,
2013-07-25 14:09:00,92.9,64.2,29.95,North,0,0.0,0.0,39,0.00,,,0.00,WUHU216HW,2013-07-25 21:09:00,
2013-07-25 14:11:00,93.1,64.4,29.95,North,0,0.0,0.0,39,0.00,,,0.00,WUHU216HW,2013-07-25 21:11:00,
2013-07-25 14:12:00,93.1,64.4,29.95,North,0,0.0,0.0,39,0.00,,,0.00,WUHU216HW,2013-07-25 21:12:00,
2013-07-25 14:13:00,93.1,64.4,29.95,North,0,0.0,0.0,39,0.00,,,0.00,WUHU216HW,2013-07-25 21:13:00,
2013-07-25 14:15:00,93.1,64.4,29.95,North,0,0.0,0.0,39,0.00,,,0.00,WUHU216HW,2013-07-25 21:15:00,
2013-07-25 14:16:00,93.1,64.4,29.95,North,0,0.0,0.0,39,0.00,,,0.00,WUHU216HW,2013-07-25 21:16:00,
2013-07-25 14:17:00,93.1,64.4,29.94,North,0,0.0,0.0,39,0.00,,,0.00,WUHU216HW,2013-07-25 21:17:00,
2013-07-25 14:18:00,93.1,65.2,29.94,North,0,0.0,0.0,40,0.00,,,0.00,WUHU216HW,2013-07-25 21:18:00,
2013-07-25 14:19:00,93.1,65.2,29.94,North,0,0.0,0.0,40,0.00,,,0.00,WUHU216HW,2013-07-25 21:19:00,
2013-07-25 14:21:00,93.1,65.2,29.94,North,0,0.0,0.0,40,0.00,,,0.00,WUHU216HW,2013-07-25 21:21:00,
2013-07-25 14:22:00,93.1,65.2,29.94,North,0,0.0,0.0,40,0.00,,,0.00,WUHU216HW,2013-07-25 21:22:00,
2013-07-25 14:23:00,93.2,65.3,29.94,North,0,0.0,0.0,40,0.00,,,0.00,WUHU216HW,2013-07-25 21:23:00,
2013-07-25 14:24:00,93.1,64.4,29.94,North,0,0.0,0.0,39,0.00,,,0.00,WUHU216HW,2013-07-25 21:24:00,
2013-07-25 14:27:00,92.9,65.0,29.94,North,0,0.0,0.0,40,0.00,,,0.00,WUHU216HW,2013-07-25 21:27:00,
2013-07-25 14:28:00,92.9,64.2,29.93,North,0,0.0,0.0,39,0.00,,,0.00,WUHU216HW,2013-07-25 21:28:00,
2013-07-25 14:29:00,92.9,64.2,29.93,North,0,0.0,0.0,39,0.00,,,0.00,WUHU216HW,2013-07-25 21:29:00,
2013-07-25 14:30:00,92.9,65.0,29.93,North,0,0.0,0.0,40,0.00,,,0.00,WUHU216HW,2013-07-25 21:30:00,
2013-07-25 14:31:00,92.9,65.0,29.93,North,0,0.0,0.0,40,0.00,,,0.00,WUHU216HW,2013-07-25 21:31:00,
2013-07-25 14:33:00,92.7,64.9,29.93,North,0,0.0,0.0,40,0.00,,,0.00,WUHU216HW,2013-07-25 21:33:00,
2013-07-25 14:34:00,92.7,64.9,29.93,North,0,0.0,0.0,40,0.00,,,0.00,WUHU216HW,2013-07-25 21:34:00,
2013-07-25 14:35:00,92.7,64.9,29.93,North,0,0.0,0.0,40,0.00,,,0.00,WUHU216HW,2013-07-25 21:35:00,
2013-07-25 14:37:00,92.5,63.9,29.93,North,0,0.0,0.0,39,0.00,,,0.00,WUHU216HW,2013-07-25 21:37:00,
2013-07-25 14:38:00,92.5,63.9,29.93,North,0,0.0,0.0,39,0.00,,,0.00,WUHU216HW,2013-07-25 21:38:00,
2013-07-25 14:39:00,92.3,63.7,29.93,North,0,0.0,0.0,39,0.00,,,0.00,WUHU216HW,2013-07-25 21:39:00,
2013-07-25 14:41:00,92.5,64.7,29.93,North,0,0.0,0.0,40,0.00,,,0.00,WUHU216HW,2013-07-25 21:41:00,
2013-07-25 14:42:00,92.3,64.5,29.93,North,0,0.0,0.0,40,0.00,,,0.00,WUHU216HW,2013-07-25 21:42:00,
2013-07-25 14:43:00,92.3,64.5,29.93,North,0,0.0,0.0,40,0.00,,,0.00,WUHU216HW,2013-07-25 21:43:00,
2013-07-25 14:44:00,92.3,64.5,29.93,North,0,0.0,0.0,40,0.00,,,0.00,WUHU216HW,2013-07-25 21:44:00,
2013-07-25 14:46:00,92.3,64.5,29.93,North,0,0.0,0.0,40,0.00,,,0.00,WUHU216HW,2013-07-25 21:46:00,
2013-07-25 14:48:00,92.3,64.5,29.94,North,0,0.0,0.0,40,0.00,,,0.00,WUHU216HW,2013-07-25 21:48:00,
2013-07-25 14:49:00,92.3,64.5,29.94,North,0,0.0,0.0,40,0.00,,,0.00,WUHU216HW,2013-07-25 21:49:00,
2013-07-25 14:52:00,92.3,64.5,29.94,North,0,0.0,0.0,40,0.00,,,0.00,WUHU216HW,2013-07-25 21:52:00,
2013-07-25 14:54:00,92.2,64.4,29.95,North,0,0.0,0.0,40,0.00,,,0.00,WUHU216HW,2013-07-25 21:54:00,
2013-07-25 14:55:00,92.2,64.4,29.95,North,0,0.0,0.0,40,0.00,,,0.00,WUHU216HW,2013-07-25 21:55:00,
2013-07-25 14:56:00,92.3,64.5,29.95,North,0,0.0,0.0,40,0.00,,,0.00,WUHU216HW,2013-07-25 21:56:00,
2013-07-25 14:58:00,92.3,64.5,29.95,North,0,0.0,0.0,40,0.00,,,0.00,WUHU216HW,2013-07-25 21:58:00,
2013-07-25 14:59:00,92.3,64.5,29.95,North,0,0.0,0.0,40,0.00,,,0.00,WUHU216HW,2013-07-25 21:59:00,
2013-07-25 15:02:00,92.3,64.5,29.95,North,0,0.0,0.0,40,0.00,,,0.00,WUHU216HW,2013-07-25 22:02:00,
2013-07-25 15:04:00,92.3,64.5,29.95,North,0,0.0,0.0,40,0.00,,,0.00,WUHU216HW,2013-07-25 22:04:00,
2013-07-25 15:05:00,92.3,64.5,29.95,North,0,0.0,0.0,40,0.00,,,0.00,WUHU216HW,2013-07-25 22:05:00,
2013-07-25 15:08:00,92.3,65.2,29.95,North,0,0.0,0.0,41,0.00,,,0.00,WUHU216HW,2013-07-25 22:08:00,
2013-07-25 15:10:00,92.5,65.3,29.94,North,0,0.0,0.0,41,0.00,,,0.00,WUHU216HW,2013-07-25 22:10:00,
2013-07-25 15:11:00,92.3,65.2,29.94,North,0,0.0,0.0,41,0.00,,,0.00,WUHU216HW,2013-07-25 22:11:00,
2013-07-25 15:13:00,92.5,65.3,29.94,North,0,0.0,0.0,41,0.00,,,0.00,WUHU216HW,2013-07-25 22:13:00,
2013-07-25 15:15:00,92.5,64.7,29.94,North,0,0.0,0.0,40,0.00,,,0.00,WUHU216HW,2013-07-25 22:15:00,
2013-07-25 15:16:00,92.5,64.7,29.94,North,0,0.0,0.0,40,0.00,,,0.00,WUHU216HW,2013-07-25 22:16:00,
2013-07-25 15:17:00,92.3,64.5,29.94,North,0,0.0,0.0,40,0.00,,,0.00,WUHU216HW,2013-07-25 22:17:00,
2013-07-25 15:18:00,92.2,64.4,29.94,North,0,0.0,0.0,40,0.00,,,0.00,WUHU216HW,2013-07-25 22:18:00,
2013-07-25 15:19:00,92.2,64.4,29.94,North,0,0.0,0.0,40,0.00,,,0.00,WUHU216HW,2013-07-25 22:19:00,
2013-07-25 15:20:00,91.8,64.1,29.94,North,0,0.0,0.0,40,0.00,,,0.00,WUHU216HW,2013-07-25 22:20:00,
2013-07-25 15:22:00,91.8,64.1,29.95,North,0,0.0,0.0,40,0.00,,,0.00,WUHU216HW,2013-07-25 22:22:00,
2013-07-25 15:23:00,91.8,64.1,29.95,North,0,0.0,0.0,40,0.00,,,0.00,WUHU216HW,2013-07-25 22:23:00,
2013-07-25 15:24:00,91.6,64.5,29.95,North,0,0.0,0.0,41,0.00,,,0.00,WUHU216HW,2013-07-25 22:24:00,
2013-07-25 15:25:00,91.4,63.7,29.95,North,0,0.0,0.0,40,0.00,,,0.00,WUHU216HW,2013-07-25 22:25:00,
2013-07-25 15:27:00,91.3,63.5,29.95,North,0,0.0,0.0,40,0.00,,,0.00,WUHU216HW,2013-07-25 22:27:00,
2013-07-25 15:29:00,91.3,63.5,29.94,North,0,0.0,0.0,40,0.00,,,0.00,WUHU216HW,2013-07-25 22:29:00,
2013-07-25 15:31:00,91.1,64.1,29.95,North,0,0.0,0.0,41,0.00,,,0.00,WUHU216HW,2013-07-25 22:31:00,
2013-07-25 15:34:00,90.7,63.7,29.94,North,0,0.0,0.0,41,0.00,,,0.00,WUHU216HW,2013-07-25 22:34:00,
2013-07-25 15:36:00,90.4,63.4,29.94,North,0,0.0,0.0,41,0.00,,,0.00,WUHU216HW,2013-07-25 22:36:00,
2013-07-25 15:37:00,90.4,63.4,29.94,North,0,0.0,0.0,41,0.00,,,0.00,WUHU216HW,2013-07-25 22:37:00,
2013-07-25 15:39:00,90.0,63.1,29.94,North,0,0.0,0.0,41,0.00,,,0.00,WUHU216HW,2013-07-25 22:39:00,
2013-07-25 15:41:00,89.5,62.7,29.94,North,0,0.0,0.0,41,0.00,,,0.00,WUHU216HW,2013-07-25 22:41:00,
2013-07-25 15:42:00,89.3,63.1,29.94,North,0,0.0,0.0,42,0.00,,,0.00,WUHU216HW,2013-07-25 22:42:00,
2013-07-25 15:43:00,89.3,63.1,29.94,North,0,0.0,0.0,42,0.00,,,0.00,WUHU216HW,2013-07-25 22:43:00,
2013-07-25 15:45:00,88.9,62.8,29.94,North,0,0.0,0.0,42,0.00,,,0.00,WUHU216HW,2013-07-25 22:45:00,
2013-07-25 15:47:00,88.6,63.2,29.94,North,0,0.0,0.0,43,0.00,,,0.00,WUHU216HW,2013-07-25 22:47:00,
2013-07-25 15:48:00,88.6,63.2,29.94,North,0,0.0,0.0,43,0.00,,,0.00,WUHU216HW,2013-07-25 22:48:00,
2013-07-25 15:49:00,88.4,63.0,29.94,North,0,0.0,0.0,43,0.00,,,0.00,WUHU216HW,2013-07-25 22:49:00,
2013-07-25 15:50:00,88.2,62.8,29.94,North,0,0.0,0.0,43,0.00,,,0.00,WUHU216HW,2013-07-25 22:50:00,
2013-07-25 15:53:00,88.2,63.5,29.94,North,0,0.0,0.0,44,0.00,,,0.00,WUHU216HW,2013-07-25 22:53:00,
2013-07-25 15:54:00,88.0,64.0,29.94,North,0,0.0,0.0,45,0.00,,,0.00,WUHU216HW,2013-07-25 22:54:00,
2013-07-25 15:55:00,88.0,64.0,29.94,North,0,0.0,0.0,45,0.00,,,0.00,WUHU216HW,2013-07-25 22:55:00,
2013-07-25 15:58:00,87.8,63.8,29.94,North,0,0.0,0.0,45,0.00,,,0.00,WUHU216HW,2013-07-25 22:58:00,
2013-07-25 15:59:00,87.8,64.4,29.94,North,0,0.0,0.0,46,0.00,,,0.00,WUHU216HW,2013-07-25 22:59:00,
2013-07-25 16:00:00,87.8,64.4,29.94,North,0,0.0,0.0,46,0.00,,,0.00,WUHU216HW,2013-07-25 23:00:00,
2013-07-25 16:04:00,87.7,64.9,29.95,North,0,0.0,0.0,47,0.00,,,0.00,WUHU216HW,2013-07-25 23:04:00,
2013-07-25 16:05:00,87.7,64.9,29.95,North,0,0.0,0.0,47,0.00,,,0.00,WUHU216HW,2013-07-25 23:05:00,
2013-07-25 16:06:00,87.7,64.9,29.95,North,0,0.0,0.0,47,0.00,,,0.00,WUHU216HW,2013-07-25 23:06:00,
2013-07-25 16:07:00,87.5,64.7,29.95,North,0,0.0,0.0,47,0.00,,,0.00,WUHU216HW,2013-07-25 23:07:00,
2013-07-25 16:10:00,87.5,65.3,29.94,North,0,0.0,0.0,48,0.00,,,0.00,WUHU216HW,2013-07-25 23:10:00,
2013-07-25 16:12:00,87.5,65.3,29.94,North,0,0.0,0.0,48,0.00,,,0.00,WUHU216HW,2013-07-25 23:12:00,
2013-07-25 16:13:00,87.5,65.3,29.94,North,0,0.0,0.0,48,0.00,,,0.00,WUHU216HW,2013-07-25 23:13:00,
2013-07-25 16:14:00,87.5,65.3,29.94,North,0,0.0,0.0,48,0.00,,,0.00,WUHU216HW,2013-07-25 23:14:00,
2013-07-25 16:15:00,87.5,65.3,29.94,North,0,0.0,0.0,48,0.00,,,0.00,WUHU216HW,2013-07-25 23:15:00,
2013-07-25 16:19:00,86.8,64.7,29.94,North,0,0.0,0.0,48,0.00,,,0.00,WUHU216HW,2013-07-25 23:19:00,
2013-07-25 16:20:00,86.8,65.3,29.94,North,0,0.0,0.0,49,0.00,,,0.00,WUHU216HW,2013-07-25 23:20:00,
2013-07-25 16:22:00,86.4,65.7,29.94,North,0,0.0,0.0,50,0.00,,,0.00,WUHU216HW,2013-07-25 23:22:00,
2013-07-25 16:24:00,86.2,65.5,29.94,North,0,0.0,0.0,50,0.00,,,0.00,WUHU216HW,2013-07-25 23:24:00,
2013-07-25 16:25:00,86.0,65.9,29.94,North,0,0.0,0.0,51,0.00,,,0.00,WUHU216HW,2013-07-25 23:25:00,
2013-07-25 16:26:00,86.0,65.9,29.95,North,0,0.0,0.0,51,0.00,,,0.00,WUHU216HW,2013-07-25 23:26:00,
2013-07-25 16:28:00,85.7,66.1,29.95,North,0,0.0,0.0,52,0.00,,,0.00,WUHU216HW,2013-07-25 23:28:00,
2013-07-25 16:29:00,85.5,65.9,29.96,North,0,0.0,0.0,52,0.00,,,0.00,WUHU216HW,2013-07-25 23:29:00,
2013-07-25 16:31:00,85.3,65.7,29.96,North,0,0.0,0.0,52,0.00,,,0.00,WUHU216HW,2013-07-25 23:31:00,
2013-07-25 16:32:00,85.3,65.7,29.96,North,0,0.0,0.0,52,0.00,,,0.00,WUHU216HW,2013-07-25 23:32:00,
2013-07-25 16:34:00,85.1,65.6,29.96,North,0,0.0,0.0,52,0.00,,,0.00,WUHU216HW,2013-07-25 23:34:00,
2013-07-25 16:35:00,85.0,65.4,29.96,North,0,0.0,0.0,52,0.00,,,0.00,WUHU216HW,2013-07-25 23:35:00,
2013-07-25 16:36:00,85.0,65.4,29.96,North,0,0.0,0.0,52,0.00,,,0.00,WUHU216HW,2013-07-25 23:36:00,
2013-07-25 16:38:00,84.6,65.1,29.96,North,0,0.0,0.0,52,0.00,,,0.00,WUHU216HW,2013-07-25 23:38:00,
2013-07-25 16:39:00,84.4,64.5,29.97,North,0,0.0,0.0,51,0.00,,,0.00,WUHU216HW,2013-07-25 23:39:00,
2013-07-25 16:40:00,84.4,64.5,29.97,North,0,0.0,0.0,51,0.00,,,0.00,WUHU216HW,2013-07-25 23:40:00,
2013-07-25 16:41:00,84.2,65.3,29.97,North,0,0.0,0.0,53,0.00,,,0.00,WUHU216HW,2013-07-25 23:41:00,
2013-07-25 16:44:00,83.9,63.9,29.97,North,0,0.0,0.0,51,0.00,,,0.00,WUHU216HW,2013-07-25 23:44:00,
2013-07-25 16:45:00,83.7,64.3,29.97,North,0,0.0,0.0,52,0.00,,,0.00,WUHU216HW,2013-07-25 23:45:00,
2013-07-25 16:46:00,83.5,63.6,29.96,North,0,0.0,0.0,51,0.00,,,0.00,WUHU216HW,2013-07-25 23:46:00,
2013-07-25 16:47:00,83.3,63.9,29.96,North,0,0.0,0.0,52,0.00,,,0.00,WUHU216HW,2013-07-25 23:47:00,
2013-07-25 16:50:00,83.0,63.0,29.96,North,0,0.0,0.0,51,0.00,,,0.00,WUHU216HW,2013-07-25 23:50:00,
2013-07-25 16:51:00,83.0,63.0,29.96,North,0,0.0,0.0,51,0.00,,,0.00,WUHU216HW,2013-07-25 23:51:00,
2013-07-25 16:52:00,83.0,63.0,29.96,North,0,0.0,0.0,51,0.00,,,0.00,WUHU216HW,2013-07-25 23:52:00,
2013-07-25 16:55:00,83.0,63.0,29.96,North,0,0.0,0.0,51,0.00,,,0.00,WUHU216HW,2013-07-25 23:55:00,
2013-07-25 16:56:00,83.0,63.0,29.96,North,0,0.0,0.0,51,0.00,,,0.00,WUHU216HW,2013-07-25 23:56:00,
2013-07-25 16:57:00,82.8,62.8,29.96,North,0,0.0,0.0,51,0.00,,,0.00,WUHU216HW,2013-07-25 23:57:00,
2013-07-25 16:58:00,83.0,63.0,29.96,North,0,0.0,0.0,51,0.00,,,0.00,WUHU216HW,2013-07-25 23:58:00,
2013-07-25 16:59:00,83.0,63.0,29.96,North,0,0.0,0.0,51,0.00,,,0.00,WUHU216HW,2013-07-25 23:59:00,
2013-07-25 17:00:00,83.0,63.0,29.96,North,0,0.0,0.0,51,0.00,,,0.00,WUHU216HW,2013-07-26 00:00:00,
2013-07-25 17:02:00,83.0,63.0,29.96,North,0,0.0,0.0,51,0.00,,,0.00,WUHU216HW,2013-07-26 00:02:00,
2013-07-25 17:03:00,83.0,63.0,29.96,North,0,0.0,0.0,51,0.00,,,0.00,WUHU216HW,2013-07-26 00:03:00,
2013-07-25 17:05:00,83.2,63.2,29.96,North,0,0.0,0.0,51,0.00,,,0.00,WUHU216HW,2013-07-26 00:05:00,
2013-07-25 17:08:00,83.2,62.6,29.95,North,0,0.0,0.0,50,0.00,,,0.00,WUHU216HW,2013-07-26 00:08:00,
2013-07-25 17:10:00,83.3,62.8,29.95,North,0,0.0,0.0,50,0.00,,,0.00,WUHU216HW,2013-07-26 00:10:00,
2013-07-25 17:11:00,83.3,62.8,29.95,North,0,0.0,0.0,50,0.00,,,0.00,WUHU216HW,2013-07-26 00:11:00,
2013-07-25 17:13:00,83.3,62.8,29.95,North,0,0.0,0.0,50,0.00,,,0.00,WUHU216HW,2013-07-26 00:13:00,
2013-07-25 17:15:00,83.5,63.0,29.95,North,0,0.0,0.0,50,0.00,,,0.00,WUHU216HW,2013-07-26 00:15:00,
2013-07-25 17:17:00,83.3,62.8,29.95,North,0,0.0,0.0,50,0.00,,,0.00,WUHU216HW,2013-07-26 00:17:00,
2013-07-25 17:18:00,83.3,62.8,29.95,North,0,0.0,0.0,50,0.00,,,0.00,WUHU216HW,2013-07-26 00:18:00,
2013-07-25 17:19:00,83.3,62.8,29.95,North,0,0.0,0.0,50,0.00,,,0.00,WUHU216HW,2013-07-26 00:19:00,
2013-07-25 17:21:00,83.3,62.8,29.95,North,0,0.0,0.0,50,0.00,,,0.00,WUHU216HW,2013-07-26 00:21:00,
2013-07-25 17:23:00,83.2,62.6,29.95,North,0,0.0,0.0,50,0.00,,,0.00,WUHU216HW,2013-07-26 00:23:00,
2013-07-25 17:24:00,83.2,62.6,29.95,North,0,0.0,0.0,50,0.00,,,0.00,WUHU216HW,2013-07-26 00:24:00,
2013-07-25 17:25:00,83.2,62.6,29.95,North,0,0.0,0.0,50,0.00,,,0.00,WUHU216HW,2013-07-26 00:25:00,
2013-07-25 17:26:00,83.2,62.6,29.95,North,0,0.0,0.0,50,0.00,,,0.00,WUHU216HW,2013-07-26 00:26:00,
2013-07-25 17:28:00,83.0,62.5,29.95,North,0,0.0,0.0,50,0.00,,,0.00,WUHU216HW,2013-07-26 00:28:00,
2013-07-25 17:29:00,83.0,62.5,29.95,North,0,0.0,0.0,50,0.00,,,0.00,WUHU216HW,2013-07-26 00:29:00,
2013-07-25 17:30:00,83.0,62.5,29.95,North,0,0.0,0.0,50,0.00,,,0.00,WUHU216HW,2013-07-26 00:30:00,
2013-07-25 17:32:00,82.8,62.3,29.96,North,0,0.0,0.0,50,0.00,,,0.00,WUHU216HW,2013-07-26 00:32:00,
2013-07-25 17:34:00,82.8,62.3,29.96,North,0,0.0,0.0,50,0.00,,,0.00,WUHU216HW,2013-07-26 00:34:00,
2013-07-25 17:35:00,82.8,62.3,29.96,North,0,0.0,0.0,50,0.00,,,0.00,WUHU216HW,2013-07-26 00:35:00,
2013-07-25 17:37:00,82.8,62.3,29.96,North,0,0.0,0.0,50,0.00,,,0.00,WUHU216HW,2013-07-26 00:37:00,
2013-07-25 17:39:00,82.6,62.1,29.96,North,0,0.0,0.0,50,0.00,,,0.00,WUHU216HW,2013-07-26 00:39:00,
2013-07-25 17:40:00,82.6,62.1,29.96,North,0,0.0,0.0,50,0.00,,,0.00,WUHU216HW,2013-07-26 00:40:00,
2013-07-25 17:41:00,82.6,62.1,29.96,North,0,0.0,0.0,50,0.00,,,0.00,WUHU216HW,2013-07-26 00:41:00,
2013-07-25 17:44:00,82.4,62.5,29.96,North,0,0.0,0.0,51,0.00,,,0.00,WUHU216HW,2013-07-26 00:44:00,
2013-07-25 17:45:00,82.4,61.9,29.96,North,0,0.0,0.0,50,0.00,,,0.00,WUHU216HW,2013-07-26 00:45:00,
2013-07-25 17:47:00,82.4,61.9,29.96,North,0,0.0,0.0,50,0.00,,,0.00,WUHU216HW,2013-07-26 00:47:00,
2013-07-25 17:49:00,82.4,61.9,29.96,North,0,0.0,0.0,50,0.00,,,0.00,WUHU216HW,2013-07-26 00:49:00,
2013-07-25 17:50:00,82.4,61.9,29.96,North,0,0.0,0.0,50,0.00,,,0.00,WUHU216HW,2013-07-26 00:50:00,
2013-07-25 17:51:00,82.3,61.7,29.96,North,0,0.0,0.0,50,0.00,,,0.00,WUHU216HW,2013-07-26 00:51:00,
2013-07-25 17:52:00,82.3,61.7,29.96,North,0,0.0,0.0,50,0.00,,,0.00,WUHU216HW,2013-07-26 00:52:00,
2013-07-25 17:55:00,82.1,62.1,29.96,North,0,0.0,0.0,51,0.00,,,0.00,WUHU216HW,2013-07-26 00:55:00,
2013-07-25 17:56:00,82.1,62.1,29.96,North,0,0.0,0.0,51,0.00,,,0.00,WUHU216HW,2013-07-26 00:56:00,
2013-07-25 17:57:00,82.1,62.1,29.96,North,0,0.0,0.0,51,0.00,,,0.00,WUHU216HW,2013-07-26 00:57:00,
2013-07-25 17:59:00,82.1,62.1,29.96,North,0,0.0,0.0,51,0.00,,,0.00,WUHU216HW,2013-07-26 00:59:00,
2013-07-25 18:00:00,81.9,61.9,29.96,North,0,0.0,0.0,51,0.00,,,0.00,WUHU216HW,2013-07-26 01:00:00,
2013-07-25 18:01:00,82.1,62.1,29.96,North,0,0.0,0.0,51,0.00,,,0.00,WUHU216HW,2013-07-26 01:01:00,
2013-07-25 18:02:00,81.9,61.9,29.96,North,0,0.0,0.0,51,0.00,,,0.00,WUHU216HW,2013-07-26 01:02:00,
2013-07-25 18:04:00,81.9,61.9,29.96,North,0,0.0,0.0,51,0.00,,,0.00,WUHU216HW,2013-07-26 01:04:00,
2013-07-25 18:06:00,81.9,61.9,29.96,North,0,0.0,0.0,51,0.00,,,0.00,WUHU216HW,2013-07-26 01:06:00,
2013-07-25 18:07:00,81.7,61.8,29.96,North,0,0.0,0.0,51,0.00,,,0.00,WUHU216HW,2013-07-26 01:07:00,
2013-07-25 18:08:00,81.7,61.8,29.96,North,0,0.0,0.0,51,0.00,,,0.00,WUHU216HW,2013-07-26 01:08:00,
2013-07-25 18:09:00,81.7,61.8,29.96,North,0,0.0,0.0,51,0.00,,,0.00,WUHU216HW,2013-07-26 01:09:00,
2013-07-25 18:12:00,81.7,61.8,29.96,North,0,0.0,0.0,51,0.00,,,0.00,WUHU216HW,2013-07-26 01:12:00,
2013-07-25 18:13:00,81.7,61.8,29.96,North,0,0.0,0.0,51,0.00,,,0.00,WUHU216HW,2013-07-26 01:13:00,
2013-07-25 18:15:00,81.7,62.3,29.96,North,0,0.0,0.0,52,0.00,,,0.00,WUHU216HW,2013-07-26 01:15:00,
2013-07-25 18:18:00,81.7,62.3,29.96,North,0,0.0,0.0,52,0.00,,,0.00,WUHU216HW,2013-07-26 01:18:00,
2013-07-25 18:20:00,81.7,62.3,29.96,North,0,0.0,0.0,52,0.00,,,0.00,WUHU216HW,2013-07-26 01:20:00,
2013-07-25 18:23:00,81.7,62.3,29.96,North,0,0.0,0.0,52,0.00,,,0.00,WUHU216HW,2013-07-26 01:23:00,
2013-07-25 18:24:00,81.7,62.3,29.97,North,0,0.0,0.0,52,0.00,,,0.00,WUHU216HW,2013-07-26 01:24:00,
2013-07-25 18:25:00,81.7,62.3,29.96,North,0,0.0,0.0,52,0.00,,,0.00,WUHU216HW,2013-07-26 01:25:00,
2013-07-25 18:26:00,81.5,62.2,29.97,North,0,0.0,0.0,52,0.00,,,0.00,WUHU216HW,2013-07-26 01:26:00,
2013-07-25 18:27:00,81.5,62.2,29.97,North,0,0.0,0.0,52,0.00,,,0.00,WUHU216HW,2013-07-26 01:27:00,
2013-07-25 18:29:00,81.5,62.2,29.97,North,0,0.0,0.0,52,0.00,,,0.00,WUHU216HW,2013-07-26 01:29:00,
2013-07-25 18:31:00,81.4,62.0,29.97,North,0,0.0,0.0,52,0.00,,,0.00,WUHU216HW,2013-07-26 01:31:00,
2013-07-25 18:32:00,81.4,62.0,29.97,North,0,0.0,0.0,52,0.00,,,0.00,WUHU216HW,2013-07-26 01:32:00,
2013-07-25 18:34:00,81.4,62.0,29.97,North,0,0.0,0.0,52,0.00,,,0.00,WUHU216HW,2013-07-26 01:34:00,
2013-07-25 18:37:00,81.2,62.4,29.97,North,0,0.0,0.0,53,0.00,,,0.00,WUHU216HW,2013-07-26 01:37:00,
2013-07-25 18:39:00,81.0,62.2,29.97,North,0,0.0,0.0,53,0.00,,,0.00,WUHU216HW,2013-07-26 01:39:00,
2013-07-25 18:44:00,80.8,62.6,29.97,North,0,0.0,0.0,54,0.00,,,0.00,WUHU216HW,2013-07-26 01:44:00,
2013-07-25 18:45:00,80.8,63.1,29.97,North,0,0.0,0.0,55,0.00,,,0.00,WUHU216HW,2013-07-26 01:45:00,
2013-07-25 18:48:00,80.6,62.9,29.97,North,0,0.0,0.0,55,0.00,,,0.00,WUHU216HW,2013-07-26 01:48:00,
2013-07-25 18:49:00,80.5,62.7,29.97,North,0,0.0,0.0,55,0.00,,,0.00,WUHU216HW,2013-07-26 01:49:00,
2013-07-25 18:50:00,80.5,62.7,29.97,North,0,0.0,0.0,55,0.00,,,0.00,WUHU216HW,2013-07-26 01:50:00,
2013-07-25 18:51:00,80.3,62.6,29.97,North,0,0.0,0.0,55,0.00,,,0.00,WUHU216HW,2013-07-26 01:51:00,
2013-07-25 18:53:00,80.3,63.1,29.97,North,0,0.0,0.0,56,0.00,,,0.00,WUHU216HW,2013-07-26 01:53:00,
2013-07-25 18:55:00,80.3,63.1,29.97,North,0,0.0,0.0,56,0.00,,,0.00,WUHU216HW,2013-07-26 01:55:00,
2013-07-25 18:57:00,80.1,63.5,29.97,North,0,0.0,0.0,57,0.00,,,0.00,WUHU216HW,2013-07-26 01:57:00,
2013-07-25 18:59:00,79.9,63.3,29.98,North,0,0.0,0.0,57,0.00,,,0.00,WUHU216HW,2013-07-26 01:59:00,
2013-07-25 19:00:00,79.9,63.3,29.98,North,0,0.0,0.0,57,0.00,,,0.00,WUHU216HW,2013-07-26 02:00:00,
2013-07-25 19:01:00,79.9,63.3,29.98,North,0,0.0,0.0,57,0.00,,,0.00,WUHU216HW,2013-07-26 02:01:00,
2013-07-25 19:02:00,79.9,63.3,29.98,North,0,0.0,0.0,57,0.00,,,0.00,WUHU216HW,2013-07-26 02:02:00,
2013-07-25 19:04:00,79.7,63.2,29.98,North,0,0.0,0.0,57,0.00,,,0.00,WUHU216HW,2013-07-26 02:04:00,
2013-07-25 19:05:00,79.7,63.2,29.98,North,0,0.0,0.0,57,0.00,,,0.00,WUHU216HW,2013-07-26 02:05:00,
2013-07-25 19:06:00,79.6,63.0,29.98,North,0,0.0,0.0,57,0.00,,,0.00,WUHU216HW,2013-07-26 02:06:00,
2013-07-25 19:07:00,79.6,63.0,29.98,North,0,0.0,0.0,57,0.00,,,0.00,WUHU216HW,2013-07-26 02:07:00,
2013-07-25 19:10:00,79.4,62.8,29.98,North,0,0.0,0.0,57,0.00,,,0.00,WUHU216HW,2013-07-26 02:10:00,
2013-07-25 19:11:00,79.4,62.8,29.98,North,0,0.0,0.0,57,0.00,,,0.00,WUHU216HW,2013-07-26 02:11:00,
2013-07-25 19:12:00,79.4,62.8,29.98,North,0,0.0,0.0,57,0.00,,,0.00,WUHU216HW,2013-07-26 02:12:00,
2013-07-25 19:15:00,79.2,62.6,29.98,North,0,0.0,0.0,57,0.00,,,0.00,WUHU216HW,2013-07-26 02:15:00,
2013-07-25 19:16:00,79.2,62.6,29.98,North,0,0.0,0.0,57,0.00,,,0.00,WUHU216HW,2013-07-26 02:16:00,
2013-07-25 19:18:00,79.2,62.6,29.98,North,0,0.0,0.0,57,0.00,,,0.00,WUHU216HW,2013-07-26 02:18:00,
2013-07-25 19:21:00,79.2,62.6,29.98,North,0,0.0,0.0,57,0.00,,,0.00,WUHU216HW,2013-07-26 02:21:00,
2013-07-25 19:22:00,79.2,62.6,29.98,North,0,0.0,0.0,57,0.00,,,0.00,WUHU216HW,2013-07-26 02:22:00,
2013-07-25 19:23:00,79.2,63.2,29.99,North,0,0.0,0.0,58,0.00,,,0.00,WUHU216HW,2013-07-26 02:23:00,
2013-07-25 19:24:00,79.2,63.2,29.99,North,0,0.0,0.0,58,0.00,,,0.00,WUHU216HW,2013-07-26 02:24:00,
2013-07-25 19:27:00,79.0,63.0,29.99,North,0,0.0,0.0,58,0.00,,,0.00,WUHU216HW,2013-07-26 02:27:00,
2013-07-25 19:28:00,79.0,63.0,29.99,North,0,0.0,0.0,58,0.00,,,0.00,WUHU216HW,2013-07-26 02:28:00,
2013-07-25 19:29:00,79.0,63.0,29.99,North,0,0.0,0.0,58,0.00,,,0.00,WUHU216HW,2013-07-26 02:29:00,
2013-07-25 19:32:00,78.8,62.8,29.99,North,0,0.0,0.0,58,0.00,,,0.00,WUHU216HW,2013-07-26 02:32:00,
2013-07-25 19:33:00,78.8,62.8,29.99,North,0,0.0,0.0,58,0.00,,,0.00,WUHU216HW,2013-07-26 02:33:00,
2013-07-25 19:35:00,78.8,62.8,29.98,North,0,0.0,0.0,58,0.00,,,0.00,WUHU216HW,2013-07-26 02:35:00,
2013-07-25 19:38:00,78.8,62.8,29.98,North,0,0.0,0.0,58,0.00,,,0.00,WUHU216HW,2013-07-26 02:38:00,
2013-07-25 19:39:00,78.8,62.8,29.98,North,0,0.0,0.0,58,0.00,,,0.00,WUHU216HW,2013-07-26 02:39:00,
2013-07-25 19:40:00,78.8,62.8,29.98,North,0,0.0,0.0,58,0.00,,,0.00,WUHU216HW,2013-07-26 02:40:00,
2013-07-25 19:42:00,78.8,63.4,29.98,North,0,0.0,0.0,59,0.00,,,0.00,WUHU216HW,2013-07-26 02:42:00,
2013-07-25 19:43:00,78.8,63.4,29.98,North,0,0.0,0.0,59,0.00,,,0.00,WUHU216HW,2013-07-26 02:43:00,
2013-07-25 19:45:00,78.8,63.4,29.98,North,0,0.0,0.0,59,0.00,,,0.00,WUHU216HW,2013-07-26 02:45:00,
2013-07-25 19:47:00,78.8,63.4,29.98,North,0,0.0,0.0,59,0.00,,,0.00,WUHU216HW,2013-07-26 02:47:00,
2013-07-25 19:48:00,78.8,63.4,29.98,North,0,0.0,0.0,59,0.00,,,0.00,WUHU216HW,2013-07-26 02:48:00,
2013-07-25 19:50:00,78.8,63.4,29.98,North,0,0.0,0.0,59,0.00,,,0.00,WUHU216HW,2013-07-26 02:50:00,
2013-07-25 19:53:00,78.8,62.8,29.98,North,0,0.0,0.0,58,0.00,,,0.00,WUHU216HW,2013-07-26 02:53:00,
2013-07-25 19:55:00,78.8,62.8,29.98,North,0,0.0,0.0,58,0.00,,,0.00,WUHU216HW,2013-07-26 02:55:00,
2013-07-25 19:57:00,78.8,63.4,29.98,North,0,0.0,0.0,59,0.00,,,0.00,WUHU216HW,2013-07-26 02:57:00,
2013-07-25 19:58:00,78.8,63.4,29.98,North,0,0.0,0.0,59,0.00,,,0.00,WUHU216HW,2013-07-26 02:58:00,
2013-07-25 19:59:00,78.8,63.4,29.98,North,0,0.0,0.0,59,0.00,,,0.00,WUHU216HW,2013-07-26 02:59:00,
2013-07-25 20:02:00,78.8,63.4,29.98,North,0,0.0,0.0,59,0.00,,,0.00,WUHU216HW,2013-07-26 03:02:00,
2013-07-25 20:03:00,78.8,63.4,29.99,North,0,0.0,0.0,59,0.00,,,0.00,WUHU216HW,2013-07-26 03:03:00,
2013-07-25 20:04:00,78.8,63.4,29.99,North,0,0.0,0.0,59,0.00,,,0.00,WUHU216HW,2013-07-26 03:04:00,
2013-07-25 20:08:00,78.7,63.2,29.99,North,0,0.0,0.0,59,0.00,,,0.00,WUHU216HW,2013-07-26 03:08:00,
2013-07-25 20:09:00,78.7,63.2,29.99,North,0,0.0,0.0,59,0.00,,,0.00,WUHU216HW,2013-07-26 03:09:00,
2013-07-25 20:10:00,78.7,63.2,29.99,North,0,0.0,0.0,59,0.00,,,0.00,WUHU216HW,2013-07-26 03:10:00,
2013-07-25 20:13:00,78.5,63.0,29.99,North,0,0.0,0.0,59,0.00,,,0.00,WUHU216HW,2013-07-26 03:13:00,
2013-07-25 20:15:00,78.5,63.0,29.99,North,0,0.0,0.0,59,0.00,,,0.00,WUHU216HW,2013-07-26 03:15:00,
2013-07-25 20:16:00,78.5,63.0,29.99,North,0,0.0,0.0,59,0.00,,,0.00,WUHU216HW,2013-07-26 03:16:00,
2013-07-25 20:20:00,78.5,62.5,29.99,North,0,0.0,0.0,58,0.00,,,0.00,WUHU216HW,2013-07-26 03:20:00,
2013-07-25 20:21:00,78.5,62.5,29.99,North,0,0.0,0.0,58,0.00,,,0.00,WUHU216HW,2013-07-26 03:21:00,
2013-07-25 20:22:00,78.5,63.0,29.99,North,0,0.0,0.0,59,0.00,,,0.00,WUHU216HW,2013-07-26 03:22:00,
2013-07-25 20:26:00,78.5,63.0,29.99,North,0,0.0,0.0,59,0.00,,,0.00,WUHU216HW,2013-07-26 03:26:00,
2013-07-25 20:27:00,78.5,63.0,29.99,North,0,0.0,0.0,59,0.00,,,0.00,WUHU216HW,2013-07-26 03:27:00,
2013-07-25 20:31:00,78.5,62.5,29.99,North,0,0.0,0.0,58,0.00,,,0.00,WUHU216HW,2013-07-26 03:31:00,
2013-07-25 20:32:00,78.5,62.5,29.99,North,0,0.0,0.0,58,0.00,,,0.00,WUHU216HW,2013-07-26 03:32:00,
2013-07-25 20:33:00,78.5,62.5,29.99,North,0,0.0,0.0,58,0.00,,,0.00,WUHU216HW,2013-07-26 03:33:00,
2013-07-25 20:36:00,78.5,63.0,29.99,North,0,0.0,0.0,59,0.00,,,0.00,WUHU216HW,2013-07-26 03:36:00,
2013-07-25 20:37:00,78.5,63.0,29.99,North,0,0.0,0.0,59,0.00,,,0.00,WUHU216HW,2013-07-26 03:37:00,
2013-07-25 20:38:00,78.5,63.0,29.99,North,0,0.0,0.0,59,0.00,,,0.00,WUHU216HW,2013-07-26 03:38:00,
2013-07-25 20:40:00,78.5,63.0,29.99,North,0,0.0,0.0,59,0.00,,,0.00,WUHU216HW,2013-07-26 03:40:00,
2013-07-25 20:42:00,78.5,63.0,29.99,North,0,0.0,0.0,59,0.00,,,0.00,WUHU216HW,2013-07-26 03:42:00,
2013-07-25 20:43:00,78.5,63.0,29.99,North,0,0.0,0.0,59,0.00,,,0.00,WUHU216HW,2013-07-26 03:43:00,
2013-07-25 20:46:00,78.5,63.5,30.00,North,0,0.0,0.0,60,0.00,,,0.00,WUHU216HW,2013-07-26 03:46:00,
2013-07-25 20:47:00,78.5,63.0,30.00,North,0,0.0,0.0,59,0.00,,,0.00,WUHU216HW,2013-07-26 03:47:00,
2013-07-25 20:48:00,78.5,63.0,30.00,North,0,0.0,0.0,59,0.00,,,0.00,WUHU216HW,2013-07-26 03:48:00,
2013-07-25 20:50:00,78.5,63.5,30.00,North,0,0.0,0.0,60,0.00,,,0.00,WUHU216HW,2013-07-26 03:50:00,
2013-07-25 20:51:00,78.5,63.5,30.00,North,0,0.0,0.0,60,0.00,,,0.00,WUHU216HW,2013-07-26 03:51:00,
2013-07-25 20:52:00,78.5,63.5,30.00,North,0,0.0,0.0,60,0.00,,,0.00,WUHU216HW,2013-07-26 03:52:00,
2013-07-25 20:53:00,78.5,63.0,30.00,North,0,0.0,0.0,59,0.00,,,0.00,WUHU216HW,2013-07-26 03:53:00,
2013-07-25 20:54:00,78.5,63.5,30.00,North,0,0.0,0.0,60,0.00,,,0.00,WUHU216HW,2013-07-26 03:54:00,
2013-07-25 20:56:00,78.3,63.4,30.00,North,0,0.0,0.0,60,0.00,,,0.00,WUHU216HW,2013-07-26 03:56:00,
2013-07-25 20:57:00,78.5,63.5,30.00,North,0,0.0,0.0,60,0.00,,,0.00,WUHU216HW,2013-07-26 03:57:00,
2013-07-25 20:58:00,78.3,63.4,30.00,North,0,0.0,0.0,60,0.00,,,0.00,WUHU216HW,2013-07-26 03:58:00,
2013-07-25 21:00:00,78.3,63.4,30.00,North,0,0.0,0.0,60,0.00,,,0.00,WUHU216HW,2013-07-26 04:00:00,
2013-07-25 21:01:00,78.3,63.4,30.00,North,0,0.0,0.0,60,0.00,,,0.00,WUHU216HW,2013-07-26 04:01:00,
2013-07-25 21:02:00,78.3,63.4,30.00,North,0,0.0,0.0,60,0.00,,,0.00,WUHU216HW,2013-07-26 04:02:00,
2013-07-25 21:06:00,78.3,62.4,30.00,North,0,0.0,0.0,58,0.00,,,0.00,WUHU216HW,2013-07-26 04:06:00,
2013-07-25 21:08:00,78.3,62.4,30.00,North,0,0.0,0.0,58,0.00,,,0.00,WUHU216HW,2013-07-26 04:08:00,
2013-07-25 21:12:00,78.3,62.8,30.01,North,0,0.0,0.0,59,0.00,,,0.00,WUHU216HW,2013-07-26 04:12:00,
2013-07-25 21:13:00,78.3,62.8,30.01,North,0,0.0,0.0,59,0.00,,,0.00,WUHU216HW,2013-07-26 04:13:00,
2013-07-25 21:14:00,78.3,62.8,30.01,North,0,0.0,0.0,59,0.00,,,0.00,WUHU216HW,2013-07-26 04:14:00,
2013-07-25 21:15:00,78.1,62.6,30.01,North,0,0.0,0.0,59,0.00,,,0.00,WUHU216HW,2013-07-26 04:15:00,
2013-07-25 21:17:00,78.1,62.6,30.01,North,0,0.0,0.0,59,0.00,,,0.00,WUHU216HW,2013-07-26 04:17:00,
2013-07-25 21:18:00,78.1,62.6,30.01,North,0,0.0,0.0,59,0.00,,,0.00,WUHU216HW,2013-07-26 04:18:00,
2013-07-25 21:20:00,78.1,62.2,30.01,North,0,0.0,0.0,58,0.00,,,0.00,WUHU216HW,2013-07-26 04:20:00,
2013-07-25 21:22:00,78.1,62.2,30.01,North,0,0.0,0.0,58,0.00,,,0.00,WUHU216HW,2013-07-26 04:22:00,
2013-07-25 21:23:00,78.3,62.4,30.01,North,0,0.0,0.0,58,0.00,,,0.00,WUHU216HW,2013-07-26 04:23:00,
2013-07-25 21:24:00,78.1,62.2,30.01,North,0,0.0,0.0,58,0.00,,,0.00,WUHU216HW,2013-07-26 04:24:00,
2013-07-25 21:25:00,78.1,62.2,30.01,North,0,0.0,0.0,58,0.00,,,0.00,WUHU216HW,2013-07-26 04:25:00,
2013-07-25 21:27:00,78.1,62.2,30.01,North,0,0.0,0.0,58,0.00,,,0.00,WUHU216HW,2013-07-26 04:27:00,
2013-07-25 21:29:00,78.1,62.2,30.01,North,0,0.0,0.0,58,0.00,,,0.00,WUHU216HW,2013-07-26 04:29:00,
2013-07-25 21:30:00,78.1,62.6,30.01,North,0,0.0,0.0,59,0.00,,,0.00,WUHU216HW,2013-07-26 04:30:00,
2013-07-25 21:32:00,78.1,62.6,30.01,North,0,0.0,0.0,59,0.00,,,0.00,WUHU216HW,2013-07-26 04:32:00,
2013-07-25 21:34:00,78.1,62.6,30.01,North,0,0.0,0.0,59,0.00,,,0.00,WUHU216HW,2013-07-26 04:34:00,
2013-07-25 21:35:00,78.1,62.6,30.01,North,0,0.0,0.0,59,0.00,,,0.00,WUHU216HW,2013-07-26 04:35:00,
2013-07-25 21:36:00,78.1,62.6,30.01,North,0,0.0,0.0,59,0.00,,,0.00,WUHU216HW,2013-07-26 04:36:00,
2013-07-25 21:37:00,78.1,62.6,30.00,North,0,0.0,0.0,59,0.00,,,0.00,WUHU216HW,2013-07-26 04:37:00,
2013-07-25 21:38:00,78.1,62.6,30.01,North,0,0.0,0.0,59,0.00,,,0.00,WUHU216HW,2013-07-26 04:38:00,
2013-07-25 21:39:00,78.1,62.6,30.01,North,0,0.0,0.0,59,0.00,,,0.00,WUHU216HW,2013-07-26 04:39:00,
2013-07-25 21:41:00,78.1,62.6,30.01,North,0,0.0,0.0,59,0.00,,,0.00,WUHU216HW,2013-07-26 04:41:00,
2013-07-25 21:42:00,77.9,62.5,30.01,North,0,0.0,0.0,59,0.00,,,0.00,WUHU216HW,2013-07-26 04:42:00,
2013-07-25 21:43:00,78.1,62.6,30.01,North,0,0.0,0.0,59,0.00,,,0.00,WUHU216HW,2013-07-26 04:43:00,
2013-07-25 21:44:00,78.1,62.6,30.01,North,0,0.0,0.0,59,0.00,,,0.00,WUHU216HW,2013-07-26 04:44:00,
2013-07-25 21:45:00,78.1,62.6,30.01,North,0,0.0,0.0,59,0.00,,,0.00,WUHU216HW,2013-07-26 04:45:00,
2013-07-25 21:47:00,78.1,62.6,30.01,North,0,0.0,0.0,59,0.00,,,0.00,WUHU216HW,2013-07-26 04:47:00,
2013-07-25 21:48:00,78.1,62.6,30.01,North,0,0.0,0.0,59,0.00,,,0.00,WUHU216HW,2013-07-26 04:48:00,
2013-07-25 21:49:00,77.9,62.5,30.01,North,0,0.0,0.0,59,0.00,,,0.00,WUHU216HW,2013-07-26 04:49:00,
2013-07-25 21:50:00,77.9,62.5,30.01,North,0,0.0,0.0,59,0.00,,,0.00,WUHU216HW,2013-07-26 04:50:00,
2013-07-25 21:51:00,77.9,62.5,30.01,North,0,0.0,0.0,59,0.00,,,0.00,WUHU216HW,2013-07-26 04:51:00,
2013-07-25 21:53:00,77.9,62.5,30.01,North,0,0.0,0.0,59,0.00,,,0.00,WUHU216HW,2013-07-26 04:53:00,
2013-07-25 21:54:00,77.9,62.5,30.01,North,0,0.0,0.0,59,0.00,,,0.00,WUHU216HW,2013-07-26 04:54:00,
2013-07-25 21:55:00,77.9,62.5,30.01,North,0,0.0,0.0,59,0.00,,,0.00,WUHU216HW,2013-07-26 04:55:00,
2013-07-25 21:56:00,77.9,62.5,30.01,North,0,0.0,0.0,59,0.00,,,0.00,WUHU216HW,2013-07-26 04:56:00,
2013-07-25 21:59:00,77.9,62.5,30.01,North,0,0.0,0.0,59,0.00,,,0.00,WUHU216HW,2013-07-26 04:59:00,
2013-07-25 22:00:00,77.8,62.3,30.01,North,0,0.0,0.0,59,0.00,,,0.00,WUHU216HW,2013-07-26 05:00:00,
2013-07-25 22:01:00,77.9,62.5,30.01,North,0,0.0,0.0,59,0.00,,,0.00,WUHU216HW,2013-07-26 05:01:00,
2013-07-25 22:02:00,77.9,62.5,30.01,North,0,0.0,0.0,59,0.00,,,0.00,WUHU216HW,2013-07-26 05:02:00,
2013-07-25 22:04:00,77.8,62.3,30.01,North,0,0.0,0.0,59,0.00,,,0.00,WUHU216HW,2013-07-26 05:04:00,
2013-07-25 22:06:00,77.8,62.3,30.01,North,0,0.0,0.0,59,0.00,,,0.00,WUHU216HW,2013-07-26 05:06:00,
2013-07-25 22:07:00,77.8,62.3,30.01,North,0,0.0,0.0,59,0.00,,,0.00,WUHU216HW,2013-07-26 05:07:00,
2013-07-25 22:08:00,77.8,62.3,30.01,North,0,0.0,0.0,59,0.00,,,0.00,WUHU216HW,2013-07-26 05:08:00,
2013-07-25 22:09:00,77.8,62.3,30.01,North,0,0.0,0.0,59,0.00,,,0.00,WUHU216HW,2013-07-26 05:09:00,
2013-07-25 22:12:00,77.6,62.1,30.01,North,0,0.0,0.0,59,0.00,,,0.00,WUHU216HW,2013-07-26 05:12:00,
2013-07-25 22:13:00,77.6,62.1,30.01,North,0,0.0,0.0,59,0.00,,,0.00,WUHU216HW,2013-07-26 05:13:00,
2013-07-25 22:14:00,77.6,62.1,30.01,North,0,0.0,0.0,59,0.00,,,0.00,WUHU216HW,2013-07-26 05:14:00,
2013-07-25 22:18:00,77.6,62.1,30.01,North,0,0.0,0.0,59,0.00,,,0.00,WUHU216HW,2013-07-26 05:18:00,
2013-07-25 22:19:00,77.6,62.6,30.01,North,0,0.0,0.0,60,0.00,,,0.00,WUHU216HW,2013-07-26 05:19:00,
2013-07-25 22:23:00,77.6,62.6,30.01,North,0,0.0,0.0,60,0.00,,,0.00,WUHU216HW,2013-07-26 05:23:00,
2013-07-25 22:24:00,77.6,62.6,30.02,North,0,0.0,0.0,60,0.00,,,0.00,WUHU216HW,2013-07-26 05:24:00,
2013-07-25 22:25:00,77.4,62.5,30.02,North,0,0.0,0.0,60,0.00,,,0.00,WUHU216HW,2013-07-26 05:25:00,
2013-07-25 22:27:00,77.4,62.5,30.02,North,0,0.0,0.0,60,0.00,,,0.00,WUHU216HW,2013-07-26 05:27:00,
2013-07-25 22:28:00,77.4,62.5,30.02,North,0,0.0,0.0,60,0.00,,,0.00,WUHU216HW,2013-07-26 05:28:00,
2013-07-25 22:29:00,77.4,62.5,30.02,North,0,0.0,0.0,60,0.00,,,0.00,WUHU216HW,2013-07-26 05:29:00,
2013-07-25 22:30:00,77.4,62.5,30.02,North,0,0.0,0.0,60,0.00,,,0.00,WUHU216HW,2013-07-26 05:30:00,
2013-07-25 22:31:00,77.4,62.5,30.02,North,0,0.0,0.0,60,0.00,,,0.00,WUHU216HW,2013-07-26 05:31:00,
2013-07-25 22:33:00,77.2,62.3,30.02,North,0,0.0,0.0,60,0.00,,,0.00,WUHU216HW,2013-07-26 05:33:00,
2013-07-25 22:34:00,77.2,62.3,30.02,North,0,0.0,0.0,60,0.00,,,0.00,WUHU216HW,2013-07-26 05:34:00,
2013-07-25 22:35:00,77.2,62.3,30.02,North,0,0.0,0.0,60,0.00,,,0.00,WUHU216HW,2013-07-26 05:35:00,
2013-07-25 22:36:00,77.2,62.3,30.02,North,0,0.0,0.0,60,0.00,,,0.00,WUHU216HW,2013-07-26 05:36:00,
2013-07-25 22:38:00,77.2,62.3,30.02,North,0,0.0,0.0,60,0.00,,,0.00,WUHU216HW,2013-07-26 05:38:00,
2013-07-25 22:39:00,77.2,62.3,30.02,North,0,0.0,0.0,60,0.00,,,0.00,WUHU216HW,2013-07-26 05:39:00,
2013-07-25 22:41:00,77.0,62.1,30.03,North,0,0.0,0.0,60,0.00,,,0.00,WUHU216HW,2013-07-26 05:41:00,
2013-07-25 22:42:00,77.0,62.6,30.03,North,0,0.0,0.0,61,0.00,,,0.00,WUHU216HW,2013-07-26 05:42:00,
2013-07-25 22:43:00,77.0,62.6,30.03,North,0,0.0,0.0,61,0.00,,,0.00,WUHU216HW,2013-07-26 05:43:00,
2013-07-25 22:44:00,77.0,62.6,30.02,North,0,0.0,0.0,61,0.00,,,0.00,WUHU216HW,2013-07-26 05:44:00,
2013-07-25 22:45:00,77.0,62.6,30.03,North,0,0.0,0.0,61,0.00,,,0.00,WUHU216HW,2013-07-26 05:45:00,
2013-07-25 22:47:00,77.0,62.6,30.02,North,0,0.0,0.0,61,0.00,,,0.00,WUHU216HW,2013-07-26 05:47:00,
2013-07-25 22:48:00,77.0,62.6,30.02,North,0,0.0,0.0,61,0.00,,,0.00,WUHU216HW,2013-07-26 05:48:00,
2013-07-25 22:50:00,76.9,62.4,30.02,North,0,0.0,0.0,61,0.00,,,0.00,WUHU216HW,2013-07-26 05:50:00,
2013-07-25 22:51:00,76.9,62.4,30.02,North,0,0.0,0.0,61,0.00,,,0.00,WUHU216HW,2013-07-26 05:51:00,
2013-07-25 22:53:00,76.9,62.4,30.02,North,0,0.0,0.0,61,0.00,,,0.00,WUHU216HW,2013-07-26 05:53:00,
2013-07-25 22:55:00,76.9,62.4,30.02,North,0,0.0,0.0,61,0.00,,,0.00,WUHU216HW,2013-07-26 05:55:00,
2013-07-25 22:57:00,76.7,62.2,30.02,North,0,0.0,0.0,61,0.00,,,0.00,WUHU216HW,2013-07-26 05:57:00,
2013-07-25 22:58:00,76.7,62.2,30.02,North,0,0.0,0.0,61,0.00,,,0.00,WUHU216HW,2013-07-26 05:58:00,
2013-07-25 23:00:00,76.9,62.4,30.02,North,0,0.0,0.0,61,0.00,,,0.00,WUHU216HW,2013-07-26 06:00:00,
2013-07-25 23:03:00,76.9,62.4,30.02,North,0,0.0,0.0,61,0.00,,,0.00,WUHU216HW,2013-07-26 06:03:00,
2013-07-25 23:04:00,76.7,62.2,30.02,North,0,0.0,0.0,61,0.00,,,0.00,WUHU216HW,2013-07-26 06:04:00,
2013-07-25 23:05:00,76.7,62.2,30.02,North,0,0.0,0.0,61,0.00,,,0.00,WUHU216HW,2013-07-26 06:05:00,
2013-07-25 23:07:00,76.7,62.2,30.02,North,0,0.0,0.0,61,0.00,,,0.00,WUHU216HW,2013-07-26 06:07:00,
2013-07-25 23:08:00,76.7,62.2,30.02,North,0,0.0,0.0,61,0.00,,,0.00,WUHU216HW,2013-07-26 06:08:00,
2013-07-25 23:10:00,76.7,62.2,30.02,North,0,0.0,0.0,61,0.00,,,0.00,WUHU216HW,2013-07-26 06:10:00,
2013-07-25 23:13:00,76.5,62.5,30.02,North,0,0.0,0.0,62,0.00,,,0.00,WUHU216HW,2013-07-26 06:13:00,
2013-07-25 23:14:00,76.5,62.5,30.02,North,0,0.0,0.0,62,0.00,,,0.00,WUHU216HW,2013-07-26 06:14:00,
2013-07-25 23:15:00,76.5,62.5,30.02,North,0,0.0,0.0,62,0.00,,,0.00,WUHU216HW,2013-07-26 06:15:00,
2013-07-25 23:17:00,76.5,62.5,30.02,North,0,0.0,0.0,62,0.00,,,0.00,WUHU216HW,2013-07-26 06:17:00,
2013-07-25 23:18:00,76.5,62.5,30.02,North,0,0.0,0.0,62,0.00,,,0.00,WUHU216HW,2013-07-26 06:18:00,
2013-07-25 23:19:00,76.5,62.5,30.02,North,0,0.0,0.0,62,0.00,,,0.00,WUHU216HW,2013-07-26 06:19:00,
2013-07-25 23:20:00,76.5,62.5,30.02,North,0,0.0,0.0,62,0.00,,,0.00,WUHU216HW,2013-07-26 06:20:00,
2013-07-25 23:22:00,76.5,62.5,30.02,North,0,0.0,0.0,62,0.00,,,0.00,WUHU216HW,2013-07-26 06:22:00,
2013-07-25 23:24:00,76.5,62.5,30.02,North,0,0.0,0.0,62,0.00,,,0.00,WUHU216HW,2013-07-26 06:24:00,
2013-07-25 23:26:00,76.3,62.4,30.02,North,0,0.0,0.0,62,0.00,,,0.00,WUHU216HW,2013-07-26 06:26:00,
2013-07-25 23:27:00,76.3,62.4,30.02,North,0,0.0,0.0,62,0.00,,,0.00,WUHU216HW,2013-07-26 06:27:00,
2013-07-25 23:29:00,76.3,62.4,30.02,North,0,0.0,0.0,62,0.00,,,0.00,WUHU216HW,2013-07-26 06:29:00,
2013-07-25 23:30:00,76.3,62.4,30.02,North,0,0.0,0.0,62,0.00,,,0.00,WUHU216HW,2013-07-26 06:30:00,
2013-07-25 23:31:00,76.3,62.4,30.02,North,0,0.0,0.0,62,0.00,,,0.00,WUHU216HW,2013-07-26 06:31:00,
2013-07-25 23:32:00,76.3,62.4,30.02,North,0,0.0,0.0,62,0.00,,,0.00,WUHU216HW,2013-07-26 06:32:00,
2013-07-25 23:34:00,76.1,62.7,30.02,North,0,0.0,0.0,63,0.00,,,0.00,WUHU216HW,2013-07-26 06:34:00,
2013-07-25 23:37:00,76.0,62.5,30.02,North,0,0.0,0.0,63,0.00,,,0.00,WUHU216HW,2013-07-26 06:37:00,
2013-07-25 23:38:00,76.0,62.5,30.02,North,0,0.0,0.0,63,0.00,,,0.00,WUHU216HW,2013-07-26 06:38:00,
2013-07-25 23:40:00,76.0,62.5,30.02,North,0,0.0,0.0,63,0.00,,,0.00,WUHU216HW,2013-07-26 06:40:00,
2013-07-25 23:42:00,75.8,62.3,30.02,North,0,0.0,0.0,63,0.00,,,0.00,WUHU216HW,2013-07-26 06:42:00,
2013-07-25 23:43:00,75.8,62.3,30.02,North,0,0.0,0.0,63,0.00,,,0.00,WUHU216HW,2013-07-26 06:43:00,
2013-07-25 23:44:00,75.8,62.7,30.02,North,0,0.0,0.0,64,0.00,,,0.00,WUHU216HW,2013-07-26 06:44:00,
2013-07-25 23:45:00,75.6,62.6,30.02,North,0,0.0,0.0,64,0.00,,,0.00,WUHU216HW,2013-07-26 06:45:00,
2013-07-25 23:48:00,75.6,62.6,30.02,North,0,0.0,0.0,64,0.00,,,0.00,WUHU216HW,2013-07-26 06:48:00,
2013-07-25 23:49:00,75.6,62.6,30.01,North,0,0.0,0.0,64,0.00,,,0.00,WUHU216HW,2013-07-26 06:49:00,
2013-07-25 23:51:00,75.6,63.0,30.01,North,0,0.0,0.0,65,0.00,,,0.00,WUHU216HW,2013-07-26 06:51:00,
2013-07-25 23:52:00,75.6,62.6,30.01,North,0,0.0,0.0,64,0.00,,,0.00,WUHU216HW,2013-07-26 06:52:00,
2013-07-25 23:53:00,75.6,62.6,30.01,North,0,0.0,0.0,64,0.00,,,0.00,WUHU216HW,2013-07-26 06:53:00,
2013-07-25 23:54:00,75.4,62.4,30.01,North,0,0.0,0.0,64,0.00,,,0.00,WUHU216HW,2013-07-26 06:54:00,
2013-07-25 23:57:00,75.4,62.8,30.01,North,0,0.0,0.0,65,0.00,,,0.00,WUHU216HW,2013-07-26 06:57:00,
2013-07-25 23:58:00,75.4,62.8,30.01,North,0,0.0,0.0,65,0.00,,,0.00,WUHU216HW,2013-07-26 06:58:00,
2013-07-25 23:59:00,75.2,62.6,30.01,North,0,0.0,0.0,65,0.00,,,0.00,WUHU216HW,2013-07-26 06:59:00,